N2CPW Weather Reports


time (UTC)temp
F
wind
direction
speed
knots
gust
knots
rain 1hr
in
rain 24hr
in
rain mn
in
humidity
%
barometer
mb
20260510202138 76 359 0.0 0.0 0.00 0.00 0.02 55 1013.2
20260510202037 76 6 0.9 0.0 0.00 0.00 0.02 55 1013.2
20260510201938 76 6 0.9 0.0 0.00 0.00 0.02 55 1013.2
20260510201859 76 9 0.9 0.0 0.00 0.00 0.02 55 1013.2
20260510201800 76 336 0.9 0.0 0.00 0.00 0.02 55 1013.2
20260510201638 76 336 0.9 0.0 0.00 0.00 0.02 54 1013.2
20260510201540 76 336 0.9 0.0 0.00 0.00 0.02 55 1013.2
20260510201424 76 316 0.9 0.0 0.00 0.00 0.02 55 1013.2
20260510201346 76 341 0.9 0.0 0.00 0.00 0.02 55 1013.2
20260510201224 76 1 0.9 0.0 0.00 0.00 0.02 55 1013.2
20260510201148 76 303 0.9 0.0 0.00 0.00 0.02 55 1013.2
20260510201027 76 322 0.9 0.0 0.00 0.00 0.02 55 1013.2
20260510200927 76 330 0.9 0.0 0.00 0.00 0.02 54 1013.2
20260510200833 76 18 0.9 0.0 0.00 0.00 0.02 54 1013.2
20260510200734 76 23 0.9 0.0 0.00 0.00 0.02 53 1013.2
20260510200633 77 32 0.9 0.0 0.00 0.00 0.02 53 1013.2
20260510200536 77 5 0.9 0.0 0.00 0.00 0.02 53 1013.2
20260510200432 77 341 0.9 0.0 0.00 0.00 0.02 52 1013.2
20260510200335 77 345 0.9 0.0 0.00 0.00 0.02 53 1013.2
20260510200233 77 332 0.0 0.0 0.00 0.00 0.02 53 1013.2
20260510200138 77 283 0.9 0.0 0.00 0.00 0.02 54 1013.2
20260510200039 77 253 0.9 0.0 0.00 0.00 0.02 53 1013.2
20260510195940 77 306 0.9 0.0 0.00 0.00 0.02 53 1013.2
20260510195839 77 304 0.9 0.0 0.00 0.00 0.02 53 1013.2
20260510195741 77 304 0.9 0.0 0.00 0.00 0.02 53 1013.2
20260510195702 76 305 0.9 0.0 0.00 0.00 0.02 53 1013.2
20260510195527 76 303 0.9 0.0 0.00 0.00 0.02 53 1013.2
20260510195426 76 303 0.9 0.0 0.00 0.00 0.02 53 1013.2
20260510195328 76 308 0.9 0.0 0.00 0.00 0.02 52 1013.2
20260510195227 77 266 0.9 0.0 0.00 0.00 0.02 52 1013.2
20260510195148 77 276 0.9 0.0 0.00 0.00 0.02 51 1013.2
20260510195027 77 337 0.9 0.0 0.00 0.00 0.02 51 1013.2
20260510194928 77 307 0.9 0.0 0.00 0.00 0.02 51 1013.2
20260510194829 77 304 0.9 0.0 0.00 0.00 0.02 51 1013.2
20260510194730 77 262 0.9 0.0 0.00 0.00 0.02 51 1013.2
20260510194632 77 260 0.9 0.0 0.00 0.00 0.02 52 1013.2
20260510194534 77 257 0.9 0.0 0.00 0.00 0.02 52 1013.2
20260510194430 77 247 0.9 0.0 0.00 0.00 0.02 52 1013.2
20260510194352 77 288 0.9 0.0 0.00 0.00 0.02 51 1013.4
20260510194232 77 289 0.9 0.0 0.00 0.00 0.02 51 1013.4
20260510194158 77 284 0.9 0.0 0.00 0.00 0.02 50 1013.4
20260510194039 77 256 0.9 0.0 0.00 0.00 0.02 52 1013.4
20260510193940 77 300 0.9 0.0 0.00 0.00 0.02 51 1013.4
20260510193840 77 278 0.9 0.0 0.00 0.00 0.02 52 1013.4
20260510193742 77 279 0.9 0.0 0.00 0.00 0.02 52 1013.4
20260510193639 77 279 0.9 0.0 0.00 0.00 0.02 52 1013.4
20260510193542 77 279 0.9 0.0 0.00 0.00 0.02 52 1013.4
20260510193445 77 270 0.9 0.0 0.00 0.00 0.02 52 1013.4
20260510193345 77 270 0.9 0.0 0.00 0.00 0.02 52 1013.4
20260510193243 76 345 0.9 0.0 0.00 0.00 0.02 52 1013.4
20260510193144 76 236 0.9 0.0 0.00 0.00 0.02 52 1013.4
20260510193043 76 188 0.9 0.0 0.00 0.00 0.02 53 1013.4
20260510192944 76 274 0.9 0.0 0.00 0.00 0.02 54 1013.4
20260510192842 76 345 0.9 0.0 0.00 0.00 0.02 53 1013.6
20260510192747 76 330 0.9 0.0 0.00 0.00 0.02 53 1013.6
20260510192629 76 334 1.7 0.0 0.00 0.00 0.02 53 1013.6
20260510192531 76 291 1.7 0.0 0.00 0.00 0.02 52 1013.6
20260510192431 76 294 1.7 0.0 0.00 0.00 0.02 52 1013.6
20260510192332 76 19 0.9 0.0 0.00 0.00 0.02 52 1013.6
20260510192229 76 230 0.9 0.0 0.00 0.00 0.02 52 1013.6
20260510192132 76 331 1.7 0.0 0.00 0.00 0.02 52 1013.6
20260510192037 76 333 0.9 0.0 0.00 0.00 0.02 53 1013.6
20260510191938 76 311 1.7 0.0 0.00 0.00 0.02 52 1013.6
20260510191839 76 244 1.7 0.0 0.00 0.00 0.02 53 1013.6
20260510191739 76 276 1.7 0.0 0.00 0.00 0.02 52 1013.6
20260510191639 76 313 2.6 0.0 0.00 0.00 0.02 52 1013.6
20260510191541 76 331 2.6 0.0 0.00 0.00 0.02 52 1013.6
20260510191443 76 280 3.5 0.0 0.00 0.00 0.02 52 1013.6
20260510191324 76 41 3.5 0.0 0.00 0.00 0.02 52 1013.7
20260510191226 76 328 3.5 0.0 0.00 0.00 0.02 51 1013.7
20260510191130 76 232 3.5 0.0 0.00 0.00 0.02 52 1013.7
20260510191033 76 274 3.5 0.0 0.00 0.00 0.02 51 1013.7
20260510190934 76 345 4.3 0.0 0.00 0.00 0.02 51 1013.7
20260510190839 77 326 3.5 0.0 0.00 0.00 0.02 51 1013.7
20260510190804 77 279 3.5 0.0 0.00 0.00 0.02 50 1013.7
20260510190641 77 180 3.5 0.0 0.00 0.00 0.02 50 1013.7
20260510190543 77 207 3.5 0.0 0.00 0.00 0.02 50 1013.7
20260510190440 77 229 3.5 0.0 0.00 0.00 0.02 50 1013.7
20260510190345 77 261 3.5 0.0 0.00 0.00 0.02 50 1013.7
20260510190243 77 316 2.6 0.0 0.00 0.00 0.02 51 1013.7
20260510190127 76 259 2.6 0.0 0.00 0.00 0.02 52 1013.7
20260510190026 76 293 2.6 0.0 0.00 0.00 0.02 51 1013.7
20260510185926 76 180 2.6 0.0 0.00 0.00 0.02 51 1013.7
20260510185848 76 253 2.6 0.0 0.00 0.00 0.02 51 1013.7
20260510185729 76 265 2.6 0.0 0.00 0.00 0.02 51 1013.7
20260510185626 76 267 2.6 0.0 0.00 0.00 0.02 50 1013.7
20260510185528 76 238 2.6 0.0 0.00 0.00 0.02 50 1013.7
20260510185432 76 260 1.7 0.0 0.00 0.00 0.02 51 1013.7
20260510185333 76 310 1.7 0.0 0.00 0.00 0.02 51 1013.7
20260510185231 76 263 1.7 0.0 0.00 0.00 0.02 50 1013.7
20260510185132 76 247 2.6 0.0 0.00 0.00 0.02 50 1013.7
20260510185052 76 236 2.6 0.0 0.00 0.00 0.02 50 1013.7
20260510184931 76 305 1.7 0.0 0.00 0.00 0.02 51 1013.7
20260510184833 76 296 1.7 0.0 0.00 0.00 0.02 51 1013.7
20260510184757 76 294 1.7 0.0 0.00 0.00 0.02 52 1013.7
20260510184658 76 100 1.7 0.0 0.00 0.00 0.02 52 1013.7
20260510184543 76 251 1.7 0.0 0.00 0.00 0.02 52 1013.7
20260510184424 76 305 1.7 0.0 0.00 0.00 0.02 51 1013.7
20260510184345 76 288 1.7 0.0 0.00 0.00 0.02 51 1013.7
20260510184243 76 206 1.7 0.0 0.00 0.00 0.02 50 1013.7
20260510184145 77 309 0.9 0.0 0.00 0.00 0.02 51 1013.7
20260510184026 77 256 0.9 0.0 0.00 0.00 0.02 51 1013.7
20260510183925 77 185 0.9 0.0 0.00 0.00 0.02 51 1013.7
20260510183827 77 280 0.9 0.0 0.00 0.00 0.02 51 1013.7
20260510183728 77 265 0.9 0.0 0.00 0.00 0.02 51 1013.7
20260510183646 77 334 0.9 0.0 0.00 0.00 0.02 51 1013.7
20260510183547 77 321 1.7 0.0 0.00 0.00 0.02 50 1013.7
20260510183424 77 149 1.7 0.0 0.00 0.00 0.02 50 1013.7
20260510183330 77 304 1.7 0.0 0.00 0.00 0.02 50 1013.7
20260510183233 77 304 1.7 0.0 0.00 0.00 0.02 50 1013.7
20260510183134 77 304 2.6 0.0 0.00 0.00 0.02 51 1013.7
20260510183032 77 309 2.6 0.0 0.00 0.00 0.02 50 1013.7
20260510182932 77 345 2.6 0.0 0.00 0.00 0.02 49 1013.7
20260510182851 77 332 1.7 0.0 0.00 0.00 0.02 48 1013.7
20260510182731 77 319 2.6 0.0 0.00 0.00 0.02 49 1013.7
20260510182637 78 265 2.6 0.0 0.00 0.00 0.02 49 1013.7
20260510182600 78 282 2.6 0.0 0.00 0.00 0.02 49 1013.7
20260510182436 78 311 2.6 0.0 0.00 0.00 0.02 51 1013.7
20260510182337 78 255 2.6 0.0 0.00 0.00 0.02 51 1013.7
20260510182300 77 222 2.6 0.0 0.00 0.00 0.02 50 1013.7
20260510182141 77 222 2.6 0.0 0.00 0.00 0.02 51 1013.7
20260510182039 77 110 2.6 0.0 0.00 0.00 0.02 51 1013.7
20260510181927 77 268 3.5 0.0 0.00 0.00 0.02 51 1013.7
20260510181826 77 186 3.5 0.0 0.00 0.00 0.02 52 1013.7
20260510181727 77 170 3.5 0.0 0.00 0.00 0.02 53 1013.7
20260510181625 77 190 2.6 0.0 0.00 0.00 0.02 52 1013.7
20260510181526 77 169 2.6 0.0 0.00 0.00 0.02 52 1013.7
20260510181427 77 202 2.6 0.0 0.00 0.00 0.02 52 1013.7
20260510181328 77 190 3.5 0.0 0.00 0.00 0.02 53 1013.7
20260510181231 76 143 3.5 0.0 0.00 0.00 0.02 53 1013.7
20260510181152 77 167 3.5 0.0 0.00 0.00 0.02 55 1013.7
20260510181030 77 317 3.5 0.0 0.00 0.00 0.02 53 1013.7
20260510180930 77 251 3.5 0.0 0.00 0.00 0.02 54 1013.7
20260510180849 77 222 4.3 0.0 0.00 0.00 0.02 55 1013.7
20260510180733 77 187 4.3 0.0 0.00 0.00 0.02 56 1013.7
20260510180631 77 170 4.3 0.0 0.00 0.00 0.02 56 1013.7
20260510180553 76 203 4.3 0.0 0.00 0.00 0.02 56 1013.7
20260510180433 76 156 4.3 0.0 0.00 0.00 0.02 56 1013.7
20260510180354 76 210 3.5 0.0 0.00 0.00 0.02 56 1013.7
20260510180236 76 103 3.5 0.0 0.00 0.00 0.02 56 1013.7
20260510180157 76 193 3.5 0.0 0.00 0.00 0.02 56 1013.7
20260510180054 76 197 3.5 0.0 0.00 0.00 0.02 57 1013.7
20260510175934 76 201 3.5 0.0 0.00 0.00 0.02 57 1013.7
20260510175833 76 166 3.5 0.0 0.00 0.00 0.02 58 1013.8
20260510175755 76 217 3.5 0.0 0.00 0.00 0.02 58 1013.8
20260510175639 75 191 3.5 0.0 0.00 0.00 0.02 58 1013.8
20260510175602 75 193 4.3 0.0 0.00 0.00 0.02 58 1013.8
20260510175437 75 212 4.3 0.0 0.00 0.00 0.02 58 1013.8
20260510175338 75 215 4.3 0.0 0.00 0.00 0.02 59 1013.8
20260510175237 75 290 3.5 0.0 0.00 0.00 0.02 58 1013.8
20260510175138 75 213 3.5 0.0 0.00 0.00 0.02 58 1013.8
20260510175038 75 217 3.5 0.0 0.00 0.00 0.02 57 1013.8
20260510174943 75 220 3.5 0.0 0.00 0.00 0.02 57 1013.8
20260510174840 75 222 2.6 0.0 0.00 0.00 0.02 57 1013.8
20260510174740 75 242 2.6 0.0 0.00 0.00 0.02 56 1013.8
20260510174639 76 249 2.6 0.0 0.00 0.00 0.02 57 1013.8
20260510174541 75 205 2.6 0.0 0.00 0.00 0.02 58 1013.8
20260510174440 75 191 1.7 0.0 0.00 0.00 0.02 58 1013.8
20260510174402 75 229 1.7 0.0 0.00 0.00 0.02 58 1013.9
20260510174226 75 286 1.7 0.0 0.00 0.00 0.02 58 1013.9
20260510174147 75 192 1.7 0.0 0.00 0.00 0.02 58 1013.9
20260510174025 75 271 1.7 0.0 0.00 0.00 0.02 60 1013.9
20260510173930 75 257 1.7 0.0 0.00 0.00 0.02 60 1013.9
20260510173829 75 213 1.7 0.0 0.00 0.00 0.02 59 1013.9
20260510173750 75 215 1.7 0.0 0.00 0.00 0.02 59 1013.9
20260510173631 75 265 1.7 0.0 0.00 0.00 0.02 61 1013.9
20260510173538 75 284 1.7 0.0 0.00 0.00 0.02 61 1013.9
20260510173434 75 155 1.7 0.0 0.00 0.00 0.02 61 1013.9
20260510173354 74 290 1.7 0.0 0.00 0.00 0.02 62 1013.9
20260510173252 74 212 1.7 0.0 0.00 0.00 0.02 62 1013.9
20260510173152 74 209 1.7 0.0 0.00 0.00 0.02 61 1013.9
20260510173051 74 260 1.7 0.0 0.00 0.00 0.02 61 1013.9
20260510172953 74 195 1.7 0.0 0.00 0.00 0.02 61 1013.9
20260510172851 74 211 0.9 0.0 0.00 0.00 0.02 61 1013.8
20260510172731 74 241 0.9 0.0 0.00 0.00 0.02 60 1013.8
20260510172630 74 278 0.9 0.0 0.00 0.00 0.02 60 1013.8
20260510172536 74 279 0.9 0.0 0.00 0.00 0.02 61 1013.8
20260510172432 74 227 0.9 0.0 0.00 0.00 0.02 62 1013.8
20260510172334 74 198 0.9 0.0 0.00 0.00 0.02 63 1013.8
20260510172233 74 276 0.9 0.0 0.00 0.00 0.02 63 1013.8
20260510172153 74 276 1.7 0.0 0.00 0.00 0.02 63 1013.8
20260510172034 74 275 1.7 0.0 0.00 0.00 0.02 62 1013.8
20260510171934 74 199 1.7 0.0 0.00 0.00 0.02 62 1013.8
20260510171839 74 198 1.7 0.0 0.00 0.00 0.02 62 1013.8
20260510171740 74 198 1.7 0.0 0.00 0.00 0.02 62 1013.8
20260510171639 74 264 1.7 0.0 0.00 0.00 0.02 62 1013.8
20260510171541 74 255 1.7 0.0 0.00 0.00 0.02 62 1013.8
20260510171438 74 296 1.7 0.0 0.00 0.00 0.02 63 1013.8
20260510171340 74 184 1.7 0.0 0.00 0.00 0.02 62 1014.0
20260510171225 74 171 1.7 0.0 0.00 0.00 0.02 63 1014.0
20260510171127 74 188 1.7 0.0 0.00 0.00 0.02 63 1014.0
20260510171025 74 201 1.7 0.0 0.00 0.00 0.02 64 1014.0
20260510170927 73 216 2.6 0.0 0.00 0.00 0.02 65 1014.0
20260510170825 73 335 2.6 0.0 0.00 0.00 0.02 65 1014.0
20260510170730 73 336 2.6 0.0 0.00 0.00 0.02 65 1014.0
20260510170635 73 222 2.6 0.0 0.00 0.00 0.02 64 1014.0
20260510170540 73 197 2.6 0.0 0.00 0.00 0.02 63 1014.0
20260510170437 73 180 2.6 0.0 0.00 0.00 0.02 63 1014.0
20260510170337 73 262 1.7 0.0 0.00 0.00 0.02 64 1014.0
20260510170236 73 227 1.7 0.0 0.00 0.00 0.02 63 1014.0
20260510170137 73 217 1.7 0.0 0.00 0.00 0.02 64 1014.0
20260510170103 73 276 1.7 0.0 0.00 0.00 0.02 64 1014.0
20260510165926 73 207 1.7 0.0 0.00 0.00 0.02 64 1014.0
20260510165827 73 182 0.9 0.0 0.00 0.00 0.02 64 1014.0
20260510165729 73 145 1.7 0.0 0.00 0.00 0.02 64 1014.0
20260510165628 73 190 1.7 0.0 0.00 0.00 0.02 65 1014.0
20260510165533 73 290 1.7 0.0 0.00 0.00 0.02 65 1014.0
20260510165430 73 218 1.7 0.0 0.00 0.00 0.02 65 1014.0
20260510165353 72 176 1.7 0.0 0.00 0.00 0.02 65 1014.0
20260510165233 72 174 1.7 0.0 0.00 0.00 0.02 65 1014.0
20260510165133 72 199 1.7 0.0 0.00 0.00 0.02 65 1014.0
20260510165032 72 315 2.6 0.0 0.00 0.00 0.02 66 1014.0
20260510164932 72 305 1.7 0.0 0.00 0.00 0.02 66 1014.0
20260510164833 72 180 1.7 0.0 0.00 0.00 0.02 66 1014.0
20260510164754 72 170 1.7 0.0 0.00 0.00 0.02 66 1014.0
20260510164633 72 185 1.7 0.0 0.00 0.00 0.02 66 1014.0
20260510164539 72 238 1.7 0.0 0.00 0.00 0.02 66 1014.0
20260510164436 72 252 1.7 0.0 0.00 0.00 0.02 67 1014.0
20260510164337 72 248 0.9 0.0 0.00 0.00 0.02 66 1014.2
20260510164242 72 262 0.9 0.0 0.00 0.00 0.02 67 1014.2
20260510164204 72 263 0.9 0.0 0.00 0.00 0.02 66 1014.2
20260510164042 72 245 0.9 0.0 0.00 0.00 0.02 66 1014.2
20260510163927 72 267 0.9 0.0 0.00 0.00 0.02 67 1014.2
20260510163825 72 168 0.9 0.0 0.00 0.00 0.02 67 1014.2
20260510163730 71 166 0.9 0.0 0.00 0.00 0.02 67 1014.2
20260510163628 71 209 0.9 0.0 0.00 0.00 0.02 67 1014.2
20260510163530 71 214 0.9 0.0 0.00 0.00 0.02 67 1014.2
20260510163431 71 218 0.9 0.0 0.00 0.00 0.02 68 1014.2
20260510163352 71 191 0.9 0.0 0.00 0.00 0.02 68 1014.2
20260510163233 71 241 0.9 0.0 0.00 0.00 0.02 68 1014.2
20260510163135 71 240 0.9 0.0 0.00 0.00 0.02 68 1014.2
20260510163034 71 201 0.0 0.0 0.00 0.00 0.02 69 1014.2
20260510162955 71 246 0.0 0.0 0.00 0.00 0.02 70 1014.2
20260510162832 70 141 0.0 0.0 0.00 0.00 0.02 70 1014.2
20260510162755 70 169 0.0 0.0 0.00 0.00 0.02 71 1014.2
20260510162632 70 149 0.0 0.0 0.00 0.00 0.02 71 1014.2
20260510162535 70 149 0.0 0.0 0.00 0.00 0.02 70 1014.2
20260510162439 70 174 0.0 0.0 0.00 0.00 0.02 71 1014.2
20260510162340 70 182 0.0 0.0 0.00 0.00 0.02 71 1014.2
20260510162305 70 182 0.0 0.0 0.00 0.00 0.02 72 1014.2
20260510162142 70 193 0.0 0.0 0.00 0.00 0.02 72 1014.2
20260510162047 70 193 0.0 0.0 0.00 0.00 0.02 72 1014.2
20260510162007 70 193 0.0 0.0 0.00 0.00 0.02 73 1014.2
20260510161824 70 164 0.0 0.0 0.00 0.00 0.02 73 1014.2
20260510161731 70 165 0.9 0.0 0.00 0.00 0.02 73 1014.2
20260510161632 69 165 0.9 0.0 0.00 0.00 0.02 74 1014.2
20260510161553 69 165 0.9 0.0 0.00 0.00 0.02 74 1014.2
20260510161434 69 165 0.9 0.0 0.00 0.00 0.02 74 1014.2
20260510161359 69 151 0.9 0.0 0.00 0.00 0.02 74 1014.3
20260510161240 68 163 0.9 0.0 0.00 0.00 0.02 74 1014.3
20260510161201 68 169 0.9 0.0 0.00 0.00 0.02 74 1014.3
20260510161039 68 169 0.0 0.0 0.00 0.00 0.02 74 1014.3
20260510160943 68 182 0.0 0.0 0.00 0.00 0.02 75 1014.3
20260510160841 68 183 0.0 0.0 0.00 0.00 0.02 75 1014.3
20260510160742 68 182 0.0 0.0 0.00 0.00 0.02 76 1014.3
20260510160641 68 82 0.0 0.0 0.00 0.00 0.02 78 1014.3
20260510160554 67 82 0.0 0.0 0.00 0.00 0.02 78 1014.3
20260510160434 67 49 0.0 0.0 0.00 0.00 0.02 79 1014.3
20260510160336 67 49 0.0 0.0 0.00 0.00 0.02 79 1014.3
20260510160242 67 49 0.9 0.0 0.00 0.00 0.02 78 1014.3
20260510160207 67 49 0.9 0.0 0.00 0.00 0.02 78 1014.3
20260510160044 67 49 0.9 0.0 0.00 0.00 0.02 78 1014.3
20260510155945 67 49 0.9 0.0 0.00 0.00 0.02 77 1014.3
20260510155842 67 51 0.9 0.0 0.00 0.00 0.02 77 1014.7
20260510155743 67 86 1.7 0.0 0.00 0.00 0.02 78 1014.7
20260510155626 67 85 1.7 0.0 0.00 0.00 0.02 78 1014.7
20260510155533 66 167 1.7 0.0 0.00 0.00 0.02 78 1014.7
20260510155434 66 177 1.7 0.0 0.00 0.00 0.02 78 1014.7
20260510155337 66 177 1.7 0.0 0.00 0.00 0.02 77 1014.7
20260510155234 66 218 0.9 0.0 0.00 0.00 0.02 78 1014.7
20260510155135 66 180 0.9 0.0 0.00 0.00 0.02 78 1014.7
20260510155034 66 180 0.9 0.0 0.00 0.00 0.02 78 1014.7
20260510154938 66 192 0.9 0.0 0.00 0.00 0.02 79 1014.7
20260510154840 66 191 0.9 0.0 0.00 0.00 0.02 79 1014.7
20260510154801 66 195 0.9 0.0 0.00 0.00 0.02 79 1014.7
20260510154643 66 204 0.0 0.0 0.00 0.00 0.02 79 1014.7
20260510154545 65 227 0.9 0.0 0.00 0.00 0.02 79 1014.7
20260510154422 65 227 0.9 0.0 0.00 0.00 0.02 80 1014.7
20260510154347 65 227 0.9 0.0 0.00 0.00 0.02 79 1014.7
20260510154228 65 174 0.9 0.0 0.00 0.00 0.02 80 1014.7
20260510154132 65 174 0.9 0.0 0.00 0.00 0.02 81 1014.7
20260510154031 65 170 0.9 0.0 0.00 0.00 0.02 80 1014.7
20260510153932 65 170 0.9 0.0 0.00 0.00 0.02 82 1014.7
20260510153830 65 169 0.9 0.0 0.00 0.00 0.02 82 1014.7
20260510153736 65 169 0.9 0.0 0.00 0.00 0.02 82 1014.7
20260510153639 64 169 0.9 0.0 0.00 0.00 0.02 83 1014.7
20260510153540 64 170 0.0 0.0 0.00 0.00 0.02 83 1014.7
20260510153436 64 183 0.0 0.0 0.00 0.00 0.02 83 1014.7
20260510153339 64 301 0.0 0.0 0.00 0.00 0.02 83 1014.7
20260510153241 64 301 0.0 0.0 0.00 0.00 0.02 83 1014.7
20260510153142 64 301 0.0 0.0 0.00 0.00 0.02 83 1014.7
20260510153025 64 282 0.0 0.0 0.00 0.00 0.02 83 1014.7
20260510152926 64 282 0.0 0.0 0.00 0.00 0.02 83 1014.7
20260510152827 64 282 0.0 0.0 0.00 0.00 0.02 84 1014.7
20260510152728 64 282 0.0 0.0 0.00 0.00 0.02 84 1014.7
20260510152627 63 284 0.0 0.0 0.00 0.00 0.02 86 1014.7
20260510152530 63 284 0.0 0.0 0.00 0.00 0.02 86 1014.7
20260510152428 63 284 0.0 0.0 0.00 0.00 0.02 86 1014.7
20260510152354 63 284 0.0 0.0 0.00 0.00 0.02 86 1014.7
20260510152232 63 284 0.0 0.0 0.00 0.00 0.02 86 1014.7
20260510152134 62 284 0.0 0.0 0.00 0.00 0.02 87 1014.7
20260510152036 62 284 0.0 0.0 0.00 0.00 0.02 87 1014.7
20260510152001 62 284 0.0 0.0 0.00 0.00 0.02 88 1014.7
20260510151837 62 284 0.0 0.0 0.00 0.00 0.02 88 1014.7
20260510151738 62 286 0.0 0.0 0.00 0.00 0.02 88 1014.7
20260510151626 62 286 0.0 0.0 0.00 0.00 0.02 89 1014.7
20260510151528 62 215 0.0 0.0 0.00 0.00 0.02 89 1014.7
20260510151425 62 215 0.0 0.0 0.00 0.00 0.02 89 1014.7
20260510151329 61 215 0.0 0.0 0.00 0.00 0.02 88 1014.7
20260510151227 61 215 0.0 0.0 0.00 0.00 0.02 89 1014.7
20260510151129 61 215 0.0 0.0 0.00 0.00 0.02 89 1014.7
20260510151031 61 140 0.0 0.0 0.00 0.00 0.02 89 1014.7
20260510150936 61 140 0.0 0.0 0.00 0.00 0.02 90 1014.7
20260510150901 61 140 0.0 0.0 0.00 0.00 0.02 90 1014.7
20260510150742 61 140 0.0 0.0 0.00 0.00 0.02 90 1014.7
20260510150640 61 140 0.0 0.0 0.00 0.00 0.02 90 1014.7
20260510150541 61 142 0.0 0.0 0.00 0.00 0.02 91 1014.7
20260510150443 61 142 0.0 0.0 0.00 0.00 0.02 91 1014.7
20260510150404 61 142 0.0 0.0 0.00 0.00 0.02 91 1014.7
20260510150226 61 142 0.0 0.0 0.00 0.00 0.02 92 1014.7
20260510150128 61 143 0.0 0.0 0.00 0.00 0.02 92 1014.7
20260510150027 61 142 0.0 0.0 0.00 0.00 0.02 92 1014.7
20260510145929 60 142 0.0 0.0 0.00 0.00 0.02 92 1014.7
20260510145830 60 138 0.0 0.0 0.00 0.00 0.02 93 1014.7
20260510145752 60 138 0.0 0.0 0.00 0.00 0.02 93 1014.7
20260510145650 60 138 0.0 0.0 0.00 0.00 0.02 93 1014.7
20260510145535 60 138 0.0 0.0 0.00 0.00 0.02 94 1014.7
20260510145453 60 138 0.0 0.0 0.00 0.00 0.02 94 1014.7
20260510145333 60 138 0.0 0.0 0.00 0.00 0.02 95 1014.7
20260510145230 60 148 0.0 0.0 0.00 0.00 0.02 95 1014.7
20260510145133 60 151 0.0 0.0 0.00 0.00 0.02 96 1014.7
20260510145031 60 151 0.0 0.0 0.00 0.00 0.02 96 1014.7
20260510144935 60 151 0.0 0.0 0.00 0.00 0.02 96 1014.7
20260510144837 60 151 0.0 0.0 0.00 0.00 0.02 97 1014.7
20260510144739 59 194 0.0 0.0 0.00 0.00 0.02 97 1014.7
20260510144637 59 194 0.0 0.0 0.00 0.00 0.02 97 1014.7
20260510144543 59 194 0.0 0.0 0.00 0.00 0.02 97 1014.7
20260510144440 59 194 0.0 0.0 0.00 0.00 0.02 97 1014.7
20260510144343 59 194 0.0 0.0 0.00 0.00 0.02 97 1014.7
20260510144228 58 194 0.0 0.0 0.00 0.00 0.02 97 1014.7
20260510144130 58 194 0.0 0.0 0.00 0.00 0.02 97 1014.7
20260510144031 58 194 0.0 0.0 0.00 0.00 0.02 97 1014.7
20260510143933 58 194 0.0 0.0 0.00 0.00 0.02 97 1014.7
20260510143830 58 203 0.0 0.0 0.00 0.00 0.02 97 1014.7
20260510143731 58 203 0.0 0.0 0.00 0.00 0.02 97 1014.7
20260510143650 58 203 0.0 0.0 0.00 0.00 0.02 97 1014.7
20260510143535 58 203 0.0 0.0 0.00 0.00 0.02 97 1014.7
20260510143431 58 170 0.0 0.0 0.00 0.00 0.02 97 1014.7
20260510143334 58 168 0.0 0.0 0.00 0.00 0.02 97 1014.7
20260510143233 58 153 0.0 0.0 0.00 0.00 0.02 97 1014.7
20260510143135 58 122 0.0 0.0 0.00 0.00 0.02 97 1014.7
20260510143033 57 122 0.0 0.0 0.00 0.00 0.02 97 1014.7
20260510142939 57 122 0.0 0.0 0.00 0.00 0.02 97 1014.7
20260510142837 57 122 0.0 0.0 0.00 0.00 0.02 97 1014.7
20260510142742 57 122 0.0 0.0 0.00 0.00 0.02 97 1014.7
20260510142640 57 122 0.0 0.0 0.00 0.00 0.02 97 1014.7
20260510142541 57 122 0.0 0.0 0.00 0.00 0.02 97 1014.7
20260510142438 57 122 0.0 0.0 0.00 0.00 0.02 97 1014.7
20260510142340 57 122 0.0 0.0 0.00 0.00 0.02 97 1014.7
20260510142243 57 122 0.0 0.0 0.00 0.00 0.02 98 1014.7
20260510142125 57 122 0.0 0.0 0.00 0.00 0.02 98 1014.7
20260510142028 57 122 0.0 0.0 0.00 0.00 0.02 98 1014.7
20260510141953 57 125 0.0 0.0 0.00 0.00 0.02 98 1014.7
20260510141835 57 143 0.0 0.0 0.00 0.00 0.02 98 1014.7
20260510141758 57 145 0.0 0.0 0.00 0.00 0.02 98 1014.7
20260510141634 57 145 0.0 0.0 0.00 0.00 0.02 98 1014.7
20260510141540 57 145 0.0 0.0 0.00 0.00 0.02 98 1014.7
20260510141438 57 145 0.0 0.0 0.00 0.00 0.02 98 1014.7
20260510141340 57 145 0.0 0.0 0.00 0.00 0.02 98 1014.7
20260510141239 57 145 0.0 0.0 0.00 0.00 0.02 98 1014.7
20260510141140 57 145 0.0 0.0 0.00 0.00 0.02 98 1014.7
20260510141038 57 145 0.0 0.0 0.00 0.00 0.02 98 1014.7
20260510140942 57 145 0.0 0.0 0.00 0.00 0.02 98 1014.7
20260510140840 57 145 0.0 0.0 0.00 0.00 0.02 98 1014.7
20260510140743 57 145 0.0 0.0 0.00 0.00 0.02 98 1014.7
20260510140643 57 145 0.0 0.0 0.00 0.00 0.02 98 1014.7
20260510140543 57 145 0.0 0.0 0.00 0.00 0.02 98 1014.7
20260510140440 56 145 0.0 0.0 0.00 0.00 0.02 98 1014.7
20260510140329 56 145 0.0 0.0 0.00 0.00 0.02 98 1014.7
20260510140247 56 145 0.0 0.0 0.00 0.00 0.02 98 1014.7
20260510140127 56 145 0.0 0.0 0.00 0.00 0.02 98 1014.7
20260510140047 56 145 0.0 0.0 0.00 0.00 0.02 98 1014.7
20260510135926 56 145 0.0 0.0 0.00 0.00 0.02 98 1014.7
20260510135828 56 145 0.0 0.0 0.00 0.00 0.02 97 1014.4
20260510135751 56 145 0.0 0.0 0.00 0.00 0.02 97 1014.4
20260510135630 56 145 0.0 0.0 0.00 0.00 0.02 97 1014.4
20260510135536 56 145 0.0 0.0 0.00 0.00 0.02 97 1014.4
20260510135452 56 145 0.0 0.0 0.00 0.00 0.02 97 1014.4
20260510135352 56 145 0.0 0.0 0.00 0.00 0.02 97 1014.4
20260510135230 56 145 0.0 0.0 0.00 0.00 0.02 97 1014.4
20260510135132 56 145 0.0 0.0 0.00 0.00 0.02 98 1014.4
20260510135029 56 145 0.0 0.0 0.00 0.00 0.02 98 1014.4
20260510134930 56 145 0.0 0.0 0.00 0.00 0.02 98 1014.4
20260510134831 56 145 0.0 0.0 0.00 0.00 0.02 98 1014.4
20260510134737 56 145 0.0 0.0 0.00 0.00 0.02 98 1014.4
20260510134655 56 145 0.0 0.0 0.00 0.00 0.02 98 1014.4
20260510134536 55 145 0.0 0.0 0.00 0.00 0.02 98 1014.4
20260510134434 55 145 0.0 0.0 0.00 0.00 0.02 98 1014.4
20260510134334 55 145 0.0 0.0 0.00 0.00 0.02 98 1014.7
20260510134232 55 145 0.0 0.0 0.00 0.00 0.02 98 1014.7
20260510134133 55 145 0.0 0.0 0.00 0.00 0.02 98 1014.7
20260510134036 56 145 0.0 0.0 0.00 0.00 0.02 98 1014.7
20260510133936 55 145 0.0 0.0 0.00 0.00 0.02 98 1014.7
20260510133836 55 145 0.0 0.0 0.00 0.00 0.02 98 1014.7
20260510133737 55 145 0.0 0.0 0.00 0.00 0.02 98 1014.7
20260510133635 55 145 0.0 0.0 0.00 0.00 0.02 98 1014.7
20260510133541 55 145 0.0 0.0 0.00 0.00 0.02 97 1014.7
20260510133441 55 145 0.0 0.0 0.00 0.00 0.02 97 1014.7
20260510133343 55 145 0.0 0.0 0.00 0.00 0.02 97 1014.7
20260510133240 55 145 0.0 0.0 0.00 0.00 0.02 97 1014.7
20260510133141 55 145 0.0 0.0 0.00 0.00 0.02 97 1014.7
20260510133039 55 145 0.0 0.0 0.00 0.00 0.02 97 1014.7
20260510132939 55 145 0.0 0.0 0.00 0.00 0.02 97 1014.7
20260510132837 55 145 0.0 0.0 0.00 0.00 0.02 97 1014.7
20260510132741 55 145 0.0 0.0 0.00 0.00 0.02 97 1014.7
20260510132640 55 82 0.0 0.0 0.00 0.00 0.02 97 1014.7
20260510132542 55 82 0.0 0.0 0.00 0.00 0.02 97 1014.7
20260510132438 55 82 0.0 0.0 0.00 0.00 0.02 97 1014.7
20260510132339 55 82 0.0 0.0 0.00 0.00 0.02 97 1014.7
20260510132237 55 82 0.0 0.0 0.00 0.00 0.02 98 1014.7
20260510132143 55 82 0.0 0.0 0.00 0.00 0.02 98 1014.7
20260510132022 55 82 0.0 0.0 0.00 0.00 0.02 98 1014.7
20260510131946 55 82 0.0 0.0 0.00 0.00 0.02 98 1014.7
20260510131824 55 82 0.0 0.0 0.00 0.00 0.02 98 1014.7
20260510131725 55 82 0.0 0.0 0.00 0.00 0.02 98 1014.7
20260510131627 55 82 0.0 0.0 0.00 0.00 0.02 98 1014.7
20260510131549 55 82 0.0 0.0 0.00 0.00 0.02 98 1014.7
20260510131428 55 82 0.0 0.0 0.00 0.00 0.02 98 1014.7
20260510131329 55 82 0.0 0.0 0.00 0.00 0.02 98 1014.4
20260510131227 55 82 0.0 0.0 0.00 0.00 0.02 98 1014.4
20260510131132 55 82 0.0 0.0 0.00 0.00 0.02 98 1014.4
20260510131032 55 82 0.0 0.0 0.00 0.00 0.02 98 1014.4
20260510130932 55 82 0.0 0.0 0.00 0.00 0.02 98 1014.4
20260510130835 55 82 0.0 0.0 0.00 0.00 0.02 98 1014.4
20260510130756 55 82 0.0 0.0 0.00 0.00 0.02 98 1014.4
20260510130700 55 82 0.0 0.0 0.00 0.00 0.02 97 1014.4
20260510130600 55 82 0.0 0.0 0.00 0.00 0.02 98 1014.4
20260510130500 55 82 0.0 0.0 0.00 0.00 0.02 98 1014.4
20260510130321 55 74 0.0 0.0 0.00 0.00 0.02 98 1014.4
20260510130225 55 74 0.0 0.0 0.00 0.00 0.02 97 1014.4
20260510130127 55 73 0.0 0.0 0.00 0.00 0.02 97 1014.4
20260510130032 55 73 0.0 0.0 0.00 0.00 0.02 98 1014.4
20260510125933 55 73 0.0 0.0 0.00 0.00 0.02 97 1014.4
20260510125831 55 73 0.0 0.0 0.00 0.00 0.02 97 1014.2
20260510125753 54 73 0.0 0.0 0.00 0.00 0.02 97 1014.2
20260510125631 54 73 0.0 0.0 0.00 0.00 0.02 97 1014.2
20260510125538 54 73 0.0 0.0 0.00 0.00 0.02 97 1014.2
20260510125456 54 73 0.0 0.0 0.00 0.00 0.02 98 1014.2
20260510125336 54 73 0.0 0.0 0.00 0.00 0.02 98 1014.2
20260510125240 54 73 0.0 0.0 0.00 0.00 0.02 98 1014.2
20260510125125 54 73 0.0 0.0 0.00 0.00 0.02 98 1014.2
20260510125027 54 73 0.0 0.0 0.00 0.00 0.02 98 1014.2
20260510124929 54 73 0.0 0.0 0.00 0.00 0.02 98 1014.2
20260510124826 54 73 0.0 0.0 0.00 0.00 0.02 98 1014.2
20260510124727 54 73 0.0 0.0 0.00 0.00 0.02 98 1014.2
20260510124630 54 73 0.0 0.0 0.00 0.00 0.02 98 1014.2
20260510124532 54 73 0.0 0.0 0.00 0.00 0.02 98 1014.2
20260510124435 54 73 0.0 0.0 0.00 0.00 0.02 98 1014.2
20260510124357 54 73 0.0 0.0 0.00 0.00 0.02 98 1014.2
20260510124234 54 73 0.0 0.0 0.00 0.00 0.02 97 1014.2
20260510124156 54 73 0.0 0.0 0.00 0.00 0.02 97 1014.2
20260510124036 54 73 0.0 0.0 0.00 0.00 0.02 97 1014.2
20260510123941 54 73 0.0 0.0 0.00 0.00 0.02 97 1014.2
20260510123903 54 73 0.0 0.0 0.00 0.00 0.02 97 1014.2
20260510123744 54 73 0.0 0.0 0.00 0.00 0.02 97 1014.2
20260510123641 54 73 0.0 0.0 0.00 0.00 0.02 97 1014.2
20260510123543 54 73 0.0 0.0 0.00 0.00 0.02 97 1014.2
20260510123440 54 73 0.0 0.0 0.00 0.00 0.02 97 1014.2
20260510123342 54 73 0.0 0.0 0.00 0.00 0.02 97 1014.2
20260510123225 54 73 0.0 0.0 0.00 0.00 0.02 97 1014.2
20260510123129 54 73 0.0 0.0 0.00 0.00 0.02 97 1014.2
20260510123028 54 73 0.0 0.0 0.00 0.00 0.02 97 1014.2
20260510122929 54 73 0.0 0.0 0.00 0.00 0.02 97 1014.2
20260510122826 54 73 0.0 0.0 0.00 0.00 0.02 97 1014.2
20260510122728 53 73 0.0 0.0 0.00 0.00 0.02 97 1014.2
20260510122629 54 73 0.0 0.0 0.00 0.00 0.02 97 1014.2
20260510122531 54 73 0.0 0.0 0.00 0.00 0.02 97 1014.2
20260510122431 54 73 0.0 0.0 0.00 0.00 0.02 97 1014.2
20260510122333 54 73 0.0 0.0 0.00 0.00 0.02 97 1014.2
20260510122234 53 73 0.0 0.0 0.00 0.00 0.02 97 1014.2
20260510122139 53 73 0.0 0.0 0.00 0.00 0.02 97 1014.2
20260510122102 53 73 0.0 0.0 0.00 0.00 0.02 97 1014.2
20260510121924 53 73 0.0 0.0 0.00 0.00 0.02 97 1014.2
20260510121845 54 73 0.0 0.0 0.00 0.00 0.02 97 1014.2
20260510121746 54 73 0.0 0.0 0.00 0.00 0.02 97 1014.2
20260510121647 53 73 0.0 0.0 0.00 0.00 0.02 97 1014.2
20260510121529 53 73 0.0 0.0 0.00 0.00 0.02 97 1014.2
20260510121424 53 73 0.0 0.0 0.00 0.00 0.02 97 1014.2
20260510121347 53 73 0.0 0.0 0.00 0.00 0.02 97 1014.0
20260510121224 53 73 0.0 0.0 0.00 0.00 0.02 98 1014.0
20260510121129 53 73 0.0 0.0 0.00 0.00 0.02 98 1014.0
20260510121028 53 73 0.0 0.0 0.00 0.00 0.02 98 1014.0
20260510120928 53 73 0.0 0.0 0.00 0.00 0.02 97 1014.0
20260510120846 53 73 0.0 0.0 0.00 0.00 0.02 97 1014.0
20260510120730 53 73 0.0 0.0 0.00 0.00 0.02 97 1014.0
20260510120630 53 73 0.0 0.0 0.00 0.00 0.02 97 1014.0
20260510120535 53 73 0.0 0.0 0.00 0.00 0.02 97 1014.0
20260510120435 53 73 0.0 0.0 0.00 0.00 0.02 97 1014.0
20260510120338 53 73 0.0 0.0 0.00 0.00 0.02 97 1014.0
20260510120239 53 73 0.0 0.0 0.00 0.00 0.02 97 1014.0
20260510120140 53 73 0.0 0.0 0.00 0.00 0.02 97 1014.0
20260510120103 53 73 0.0 0.0 0.00 0.00 0.02 97 1014.0
20260510120003 53 73 0.0 0.0 0.00 0.00 0.02 97 1014.0
20260510115840 53 73 0.0 0.0 0.00 0.00 0.02 97 1013.7
20260510115729 53 73 0.0 0.0 0.00 0.00 0.02 97 1013.7
20260510115647 53 73 0.0 0.0 0.00 0.00 0.02 97 1013.7
20260510115528 53 73 0.0 0.0 0.00 0.00 0.02 97 1013.7
20260510115426 53 73 0.0 0.0 0.00 0.00 0.02 97 1013.7
20260510115347 53 73 0.0 0.0 0.00 0.00 0.02 97 1013.7
20260510115227 53 73 0.0 0.0 0.00 0.00 0.02 97 1013.7
20260510115128 53 73 0.0 0.0 0.00 0.00 0.02 97 1013.7
20260510115031 53 73 0.0 0.0 0.00 0.00 0.02 97 1013.7
20260510114931 53 73 0.0 0.0 0.00 0.00 0.02 97 1013.7
20260510114833 53 73 0.0 0.0 0.00 0.00 0.02 97 1013.7
20260510114736 53 73 0.0 0.0 0.00 0.00 0.02 98 1013.7
20260510114637 53 73 0.0 0.0 0.00 0.00 0.02 98 1013.7
20260510114559 53 73 0.0 0.0 0.00 0.00 0.02 98 1013.7
20260510114438 53 73 0.0 0.0 0.00 0.00 0.02 98 1013.7
20260510114343 53 73 0.0 0.0 0.00 0.00 0.02 98 1013.7
20260510114224 53 73 0.0 0.0 0.00 0.00 0.02 97 1013.7
20260510114145 53 73 0.0 0.0 0.00 0.00 0.02 97 1013.7
20260510114044 53 73 0.0 0.0 0.00 0.00 0.02 97 1013.7
20260510113943 52 73 0.0 0.0 0.00 0.00 0.02 97 1013.7
20260510113842 52 73 0.0 0.0 0.00 0.00 0.02 97 1013.7
20260510113742 52 73 0.0 0.0 0.00 0.00 0.02 97 1013.7
20260510113624 52 73 0.0 0.0 0.00 0.00 0.02 97 1013.7
20260510113527 52 73 0.0 0.0 0.00 0.00 0.02 97 1013.7
20260510113428 52 73 0.0 0.0 0.00 0.00 0.02 97 1013.7
20260510113329 52 73 0.0 0.0 0.00 0.00 0.02 97 1013.7
20260510113226 52 73 0.0 0.0 0.00 0.00 0.02 97 1013.7
20260510113128 52 73 0.0 0.0 0.00 0.00 0.02 97 1013.7
20260510113031 52 73 0.0 0.0 0.00 0.00 0.02 97 1013.7
20260510112931 52 73 0.0 0.0 0.00 0.00 0.02 97 1013.7
20260510112830 52 73 0.0 0.0 0.00 0.00 0.02 97 1013.7
20260510112732 52 73 0.0 0.0 0.00 0.00 0.02 97 1013.7
20260510112630 52 73 0.0 0.0 0.00 0.00 0.02 97 1013.7
20260510112536 52 73 0.0 0.0 0.00 0.00 0.02 97 1013.7
20260510112438 52 73 0.0 0.0 0.00 0.00 0.02 97 1013.7
20260510112342 52 73 0.0 0.0 0.00 0.00 0.02 97 1013.7
20260510112243 52 73 0.0 0.0 0.00 0.00 0.02 97 1013.7
20260510112146 52 73 0.0 0.0 0.00 0.00 0.02 97 1013.7
20260510112044 52 74 0.0 0.0 0.00 0.00 0.02 97 1013.7
20260510111944 52 74 0.0 0.0 0.00 0.00 0.02 97 1013.7
20260510111826 52 74 0.0 0.0 0.00 0.00 0.02 97 1013.7
20260510111728 52 74 0.0 0.0 0.00 0.00 0.02 97 1013.7
20260510111627 52 74 0.0 0.0 0.00 0.00 0.02 97 1013.7
20260510111528 52 74 0.0 0.0 0.00 0.00 0.02 97 1013.7
20260510111425 52 74 0.0 0.0 0.00 0.00 0.02 97 1013.7
20260510111347 52 74 0.0 0.0 0.00 0.00 0.02 97 1013.5
20260510111226 52 74 0.0 0.0 0.00 0.00 0.02 97 1013.5
20260510111131 52 74 0.0 0.0 0.00 0.00 0.02 97 1013.5
20260510111034 52 74 0.0 0.0 0.00 0.00 0.02 97 1013.5
20260510110937 52 74 0.0 0.0 0.00 0.00 0.02 97 1013.5
20260510110856 52 74 0.0 0.0 0.00 0.00 0.02 97 1013.5
20260510110738 52 74 0.0 0.0 0.00 0.00 0.02 97 1013.5
20260510110659 52 74 0.0 0.0 0.00 0.00 0.02 97 1013.5
20260510110539 52 74 0.0 0.0 0.00 0.00 0.02 97 1013.5
20260510110500 52 74 0.0 0.0 0.00 0.00 0.02 97 1013.5
20260510110324 52 74 0.0 0.0 0.00 0.00 0.02 97 1013.5
20260510110225 52 74 0.0 0.0 0.00 0.00 0.02 97 1013.5
20260510110127 52 74 0.0 0.0 0.00 0.00 0.02 97 1013.5
20260510110045 52 74 0.0 0.0 0.00 0.00 0.02 97 1013.5
20260510105925 52 74 0.0 0.0 0.00 0.00 0.02 97 1013.5
20260510105826 52 74 0.0 0.0 0.00 0.00 0.02 97 1013.2
20260510105732 52 74 0.0 0.0 0.00 0.00 0.02 97 1013.2
20260510105637 52 74 0.0 0.0 0.00 0.00 0.02 97 1013.2
20260510105559 52 74 0.0 0.0 0.00 0.00 0.02 97 1013.2
20260510105438 52 74 0.0 0.0 0.00 0.00 0.02 97 1013.2
20260510105339 52 74 0.0 0.0 0.00 0.00 0.02 97 1013.2
20260510105237 52 74 0.0 0.0 0.00 0.00 0.02 97 1013.2
20260510105139 52 74 0.0 0.0 0.00 0.00 0.02 97 1013.2
20260510105022 52 74 0.0 0.0 0.00 0.00 0.02 97 1013.2
20260510104946 52 74 0.0 0.0 0.00 0.00 0.02 97 1013.2
20260510104824 52 74 0.0 0.0 0.00 0.00 0.02 97 1013.2
20260510104746 52 74 0.0 0.0 0.00 0.00 0.02 97 1013.2
20260510104624 52 74 0.0 0.0 0.00 0.00 0.02 97 1013.2
20260510104547 52 74 0.0 0.0 0.00 0.00 0.02 97 1013.2
20260510104427 52 74 0.0 0.0 0.00 0.00 0.02 97 1013.2
20260510104328 52 74 0.0 0.0 0.00 0.00 0.02 97 1013.1
20260510104230 52 74 0.0 0.0 0.00 0.00 0.02 97 1013.1
20260510104152 52 74 0.0 0.0 0.00 0.00 0.02 97 1013.1
20260510104030 51 74 0.0 0.0 0.00 0.00 0.02 97 1013.1
20260510103931 52 74 0.0 0.0 0.00 0.00 0.02 97 1013.1
20260510103830 51 74 0.0 0.0 0.00 0.00 0.02 97 1013.1
20260510103737 51 74 0.0 0.0 0.00 0.00 0.02 97 1013.1
20260510103659 51 74 0.0 0.0 0.00 0.00 0.02 97 1013.1
20260510103541 51 74 0.0 0.0 0.00 0.00 0.02 97 1013.1
20260510103438 51 74 0.0 0.0 0.00 0.00 0.02 97 1013.1
20260510103338 51 79 0.0 0.0 0.00 0.00 0.02 97 1013.1
20260510103238 51 56 0.0 0.0 0.00 0.00 0.02 97 1013.1
20260510103158 51 56 0.0 0.0 0.00 0.00 0.02 97 1013.1
20260510103058 52 66 0.0 0.0 0.00 0.00 0.02 97 1013.1
20260510102942 52 70 0.0 0.0 0.00 0.00 0.02 97 1013.1
20260510102823 52 73 0.0 0.0 0.00 0.00 0.02 97 1013.2
20260510102729 52 73 0.0 0.0 0.00 0.00 0.02 97 1013.2
20260510102630 52 78 0.0 0.0 0.00 0.00 0.02 97 1013.2
20260510102535 52 78 0.0 0.0 0.00 0.00 0.02 97 1013.2
20260510102431 52 76 0.0 0.0 0.00 0.00 0.02 97 1013.2
20260510102337 52 78 0.0 0.0 0.00 0.00 0.02 97 1013.2
20260510102235 52 78 0.0 0.0 0.00 0.00 0.02 97 1013.2
20260510102136 52 78 0.0 0.0 0.00 0.00 0.02 97 1013.2
20260510102036 52 78 0.0 0.0 0.00 0.00 0.02 97 1013.2
20260510101936 52 78 0.0 0.0 0.00 0.00 0.02 97 1013.2
20260510101858 52 45 0.0 0.0 0.00 0.00 0.02 97 1013.2
20260510101738 52 45 0.0 0.0 0.00 0.00 0.02 97 1013.2
20260510101620 52 45 0.0 0.0 0.00 0.00 0.02 97 1013.2
20260510101546 52 45 0.0 0.0 0.00 0.00 0.02 97 1013.2
20260510101441 52 45 0.0 0.0 0.00 0.00 0.02 97 1013.2
20260510101342 52 45 0.0 0.0 0.00 0.00 0.02 97 1013.2
20260510101241 52 46 0.0 0.0 0.00 0.00 0.02 97 1013.2
20260510101144 52 46 0.0 0.0 0.00 0.00 0.02 97 1013.2
20260510101025 52 46 0.0 0.0 0.00 0.00 0.02 97 1013.2
20260510100925 52 46 0.0 0.0 0.00 0.00 0.02 97 1013.2
20260510100826 52 46 0.0 0.0 0.00 0.00 0.02 97 1013.2
20260510100749 52 47 0.0 0.0 0.00 0.00 0.02 97 1013.2
20260510100649 52 47 0.0 0.0 0.00 0.00 0.02 97 1013.2
20260510100622 52 46 0.0 0.0 0.00 0.00 0.02 97 1013.2
20260510100420 52 46 0.0 0.0 0.00 0.00 0.02 97 1013.2
20260510100324 52 29 0.0 0.0 0.00 0.00 0.02 97 1013.2
20260510100230 52 29 0.0 0.0 0.00 0.00 0.02 97 1013.2
20260510100132 52 29 0.0 0.0 0.00 0.00 0.02 97 1013.2
20260510100035 52 29 0.0 0.0 0.00 0.00 0.02 97 1013.2
20260510095938 52 29 0.0 0.0 0.00 0.00 0.02 97 1013.2
20260510095837 52 29 0.0 0.0 0.00 0.00 0.02 97 1012.9
20260510095737 52 29 0.0 0.0 0.00 0.00 0.02 97 1012.9
20260510095640 52 29 0.0 0.0 0.00 0.00 0.02 97 1012.9
20260510095541 52 29 0.0 0.0 0.00 0.00 0.02 97 1012.9
20260510095421 52 27 0.0 0.0 0.00 0.00 0.02 97 1012.9
20260510095326 52 27 0.0 0.0 0.00 0.00 0.02 97 1012.9
20260510095228 52 27 0.0 0.0 0.00 0.00 0.02 97 1012.9
20260510095131 52 27 0.0 0.0 0.00 0.00 0.02 97 1012.9
20260510095036 52 27 0.0 0.0 0.00 0.00 0.02 97 1012.9
20260510094957 52 27 0.0 0.0 0.00 0.00 0.02 97 1012.9
20260510094834 52 27 0.0 0.0 0.00 0.00 0.02 97 1012.9
20260510094734 52 27 0.0 0.0 0.00 0.00 0.02 97 1012.9
20260510094635 52 27 0.0 0.0 0.00 0.00 0.02 97 1012.9
20260510094537 52 27 0.0 0.0 0.00 0.00 0.02 97 1012.9
20260510094438 52 27 0.0 0.0 0.00 0.00 0.02 97 1012.9
20260510094359 52 27 0.0 0.0 0.00 0.00 0.02 97 1013.1
20260510094244 52 23 0.0 0.0 0.00 0.00 0.02 97 1013.1
20260510094205 52 23 0.0 0.0 0.00 0.00 0.02 97 1013.1
20260510094043 52 22 0.0 0.0 0.00 0.00 0.02 97 1013.1
20260510093943 52 18 0.0 0.0 0.00 0.00 0.02 97 1013.1
20260510093841 52 18 0.0 0.0 0.00 0.00 0.02 97 1013.1
20260510093742 52 18 0.9 0.0 0.00 0.00 0.02 97 1013.1
20260510093625 52 10 0.0 0.0 0.00 0.00 0.02 97 1013.1
20260510093527 52 12 0.0 0.0 0.00 0.00 0.02 97 1013.1
20260510093429 52 12 0.9 0.0 0.00 0.00 0.02 97 1013.1
20260510093351 52 12 0.9 0.0 0.00 0.00 0.02 97 1013.1
20260510093248 52 12 0.9 0.0 0.00 0.00 0.02 97 1013.1
20260510093133 52 12 0.9 0.0 0.00 0.00 0.02 97 1013.1
20260510093031 52 10 0.9 0.0 0.00 0.00 0.02 97 1013.1
20260510092931 52 11 0.9 0.0 0.00 0.00 0.02 97 1013.1
20260510092833 52 11 0.9 0.0 0.00 0.00 0.02 97 1012.8
20260510092734 52 9 0.9 0.0 0.00 0.00 0.02 97 1012.8
20260510092631 52 13 0.9 0.0 0.00 0.00 0.02 97 1012.8
20260510092533 52 18 0.9 0.0 0.00 0.00 0.02 97 1012.8
20260510092430 52 13 0.9 0.0 0.00 0.00 0.02 97 1012.8
20260510092330 52 1 0.9 0.0 0.00 0.00 0.02 97 1012.8
20260510092233 52 1 0.9 0.0 0.00 0.00 0.02 97 1012.8
20260510092135 52 355 0.9 0.0 0.00 0.00 0.02 97 1012.8
20260510092038 52 350 0.9 0.0 0.00 0.00 0.02 97 1012.8
20260510091959 52 355 0.9 0.0 0.00 0.00 0.02 97 1012.8
20260510091900 51 2 0.9 0.0 0.00 0.00 0.02 97 1012.8
20260510091740 51 7 0.9 0.0 0.00 0.00 0.02 97 1012.8
20260510091641 51 22 0.9 0.0 0.00 0.00 0.02 97 1012.8
20260510091544 51 50 0.9 0.0 0.00 0.00 0.02 97 1012.8
20260510091425 51 14 0.9 0.0 0.00 0.00 0.02 97 1012.8
20260510091346 51 13 0.0 0.0 0.00 0.00 0.02 97 1012.7
20260510091224 51 31 0.0 0.0 0.00 0.00 0.02 97 1012.7
20260510091145 51 34 0.0 0.0 0.00 0.00 0.02 97 1012.7
20260510091043 51 326 0.0 0.0 0.00 0.00 0.02 97 1012.7
20260510090944 51 326 0.0 0.0 0.00 0.00 0.02 97 1012.7
20260510090846 51 13 0.0 0.0 0.00 0.00 0.02 97 1012.7
20260510090730 51 25 0.0 0.0 0.00 0.00 0.02 97 1012.7
20260510090631 51 25 0.0 0.0 0.00 0.00 0.02 97 1012.7
20260510090532 51 355 0.0 0.0 0.00 0.00 0.02 97 1012.7
20260510090429 51 331 0.0 0.0 0.00 0.00 0.02 97 1012.7
20260510090331 51 331 0.0 0.0 0.00 0.00 0.02 97 1012.7
20260510090229 51 327 0.0 0.0 0.00 0.00 0.02 97 1012.7
20260510090133 51 327 0.0 0.0 0.00 0.00 0.02 97 1012.7
20260510090032 51 22 0.0 0.0 0.00 0.00 0.02 97 1012.7
20260510085933 51 22 0.0 0.0 0.00 0.00 0.02 97 1012.7
20260510085852 51 19 0.0 0.0 0.00 0.00 0.02 97 1012.8
20260510085732 51 19 0.0 0.0 0.00 0.00 0.02 97 1012.8
20260510085631 50 28 0.0 0.0 0.00 0.00 0.02 97 1012.8
20260510085537 50 9 0.0 0.0 0.00 0.00 0.02 97 1012.8
20260510085442 50 350 0.0 0.0 0.00 0.00 0.02 97 1012.8
20260510085343 50 350 0.0 0.0 0.00 0.00 0.02 97 1012.8
20260510085306 50 334 0.0 0.0 0.00 0.00 0.02 97 1012.8
20260510085145 50 3 0.0 0.0 0.00 0.00 0.02 97 1012.8
20260510085043 50 3 0.0 0.0 0.00 0.00 0.02 97 1012.8
20260510084943 50 3 0.0 0.0 0.00 0.00 0.02 97 1012.8
20260510084828 50 355 0.0 0.0 0.00 0.00 0.02 97 1012.8
20260510084729 50 345 0.0 0.0 0.00 0.00 0.02 97 1012.8
20260510084627 50 6 0.0 0.0 0.00 0.00 0.02 97 1012.8
20260510084530 50 7 0.0 0.0 0.00 0.00 0.02 97 1012.8
20260510084429 50 7 0.0 0.0 0.00 0.00 0.02 97 1012.8
20260510084331 50 7 0.0 0.0 0.00 0.00 0.02 97 1012.5
20260510084229 49 7 0.0 0.0 0.00 0.00 0.02 97 1012.5
20260510084135 50 7 0.0 0.0 0.00 0.00 0.02 97 1012.5
20260510084033 50 7 0.0 0.0 0.00 0.00 0.02 97 1012.5
20260510083933 49 7 0.0 0.0 0.00 0.00 0.02 97 1012.5
20260510083832 49 7 0.0 0.0 0.00 0.00 0.02 97 1012.5
20260510083754 49 7 0.0 0.0 0.00 0.00 0.02 97 1012.5
20260510083634 49 7 0.0 0.0 0.00 0.00 0.02 97 1012.5
20260510083555 49 7 0.0 0.0 0.00 0.00 0.02 97 1012.5
20260510083451 49 7 0.0 0.0 0.00 0.00 0.02 97 1012.5
20260510083336 49 7 0.0 0.0 0.00 0.00 0.02 97 1012.5
20260510083234 49 7 0.0 0.0 0.00 0.00 0.02 97 1012.5
20260510083137 49 7 0.0 0.0 0.00 0.00 0.02 97 1012.5
20260510083055 49 7 0.0 0.0 0.00 0.00 0.02 97 1012.5
20260510082936 49 7 0.0 0.0 0.00 0.00 0.02 97 1012.5
20260510082834 49 7 0.0 0.0 0.00 0.00 0.02 97 1012.5
20260510082736 49 7 0.0 0.0 0.00 0.00 0.02 97 1012.5
20260510082639 49 7 0.0 0.0 0.00 0.00 0.02 97 1012.5
20260510082543 49 7 0.0 0.0 0.00 0.00 0.02 97 1012.5
20260510082444 49 7 0.0 0.0 0.00 0.00 0.02 97 1012.5
20260510082406 49 7 0.0 0.0 0.00 0.00 0.02 97 1012.5
20260510082242 49 7 0.0 0.0 0.00 0.00 0.02 97 1012.5
20260510082143 49 7 0.0 0.0 0.00 0.00 0.02 97 1012.5
20260510082025 49 7 0.0 0.0 0.00 0.00 0.02 97 1012.5
20260510081945 49 7 0.0 0.0 0.00 0.00 0.02 97 1012.5
20260510081843 49 7 0.0 0.0 0.00 0.00 0.02 97 1012.5
20260510081725 49 7 0.0 0.0 0.00 0.00 0.02 97 1012.5
20260510081646 49 7 0.0 0.0 0.00 0.00 0.02 97 1012.5
20260510081526 49 7 0.0 0.0 0.00 0.00 0.02 97 1012.5
20260510081428 49 7 0.0 0.0 0.00 0.00 0.02 97 1012.5
20260510081337 49 7 0.0 0.0 0.00 0.00 0.02 97 1012.5
20260510081238 49 7 0.0 0.0 0.00 0.00 0.02 97 1012.5
20260510081144 49 7 0.0 0.0 0.00 0.00 0.02 97 1012.5
20260510081023 49 7 0.0 0.0 0.00 0.00 0.02 97 1012.5
20260510080946 49 7 0.0 0.0 0.00 0.00 0.02 97 1012.5
20260510080824 49 7 0.0 0.0 0.00 0.00 0.02 97 1012.5
20260510080731 49 7 0.0 0.0 0.00 0.00 0.02 97 1012.5
20260510080629 49 7 0.0 0.0 0.00 0.00 0.02 97 1012.5
20260510080531 49 7 0.0 0.0 0.00 0.00 0.02 97 1012.5
20260510080428 49 7 0.0 0.0 0.00 0.00 0.02 97 1012.5
20260510080354 49 7 0.0 0.0 0.00 0.00 0.02 97 1012.5
20260510080232 49 7 0.0 0.0 0.00 0.00 0.01 97 1012.5
20260510080133 49 7 0.0 0.0 0.00 0.00 0.01 97 1012.5
20260510080055 49 7 0.0 0.0 0.00 0.00 0.01 97 1012.5
20260510075959 49 7 0.0 0.0 0.00 0.00 0.01 97 1012.5
20260510075836 49 7 0.0 0.0 0.00 0.00 0.01 97 1012.3
20260510075737 49 7 0.0 0.0 0.00 0.00 0.01 97 1012.3
20260510075637 49 7 0.0 0.0 0.00 0.00 0.01 97 1012.3
20260510075539 49 7 0.0 0.0 0.00 0.00 0.01 97 1012.3
20260510075437 49 7 0.0 0.0 0.00 0.00 0.01 97 1012.3
20260510075338 49 7 0.0 0.0 0.00 0.00 0.01 97 1012.3
20260510075241 49 7 0.0 0.0 0.00 0.00 0.01 97 1012.3
20260510075142 49 7 0.0 0.0 0.00 0.00 0.01 97 1012.3
20260510075041 49 7 0.0 0.0 0.00 0.00 0.01 97 1012.3
20260510074943 49 7 0.0 0.0 0.00 0.00 0.01 97 1012.3
20260510074904 49 7 0.0 0.0 0.00 0.00 0.01 97 1012.3
20260510074745 49 7 0.0 0.0 0.00 0.00 0.01 96 1012.3
20260510074626 49 7 0.0 0.0 0.00 0.00 0.01 97 1012.3
20260510074528 49 7 0.0 0.0 0.00 0.00 0.01 97 1012.3
20260510074425 49 7 0.0 0.0 0.00 0.00 0.01 97 1012.3
20260510074327 49 7 0.0 0.0 0.00 0.00 0.01 97 1012.4
20260510074228 49 7 0.0 0.0 0.00 0.00 0.01 97 1012.4
20260510074149 49 7 0.0 0.0 0.00 0.00 0.01 97 1012.4
20260510074050 49 7 0.0 0.0 0.00 0.00 0.01 97 1012.4
20260510073930 49 7 0.0 0.0 0.00 0.00 0.01 97 1012.4
20260510073830 49 7 0.0 0.0 0.00 0.00 0.01 97 1012.4
20260510073751 49 7 0.0 0.0 0.00 0.00 0.01 97 1012.4
20260510073628 49 7 0.0 0.0 0.00 0.00 0.01 97 1012.4
20260510073530 49 7 0.0 0.0 0.00 0.00 0.01 97 1012.4
20260510073427 49 7 0.0 0.0 0.00 0.00 0.01 97 1012.4
20260510073330 49 7 0.0 0.0 0.00 0.00 0.01 97 1012.4
20260510073228 49 7 0.0 0.0 0.00 0.00 0.01 97 1012.4
20260510073137 49 7 0.0 0.0 0.00 0.00 0.01 97 1012.4
20260510073035 49 7 0.0 0.0 0.00 0.00 0.01 97 1012.4
20260510072956 49 6 0.0 0.0 0.00 0.00 0.01 97 1012.4
20260510072836 49 6 0.0 0.0 0.00 0.00 0.01 97 1012.1
20260510072738 49 6 0.0 0.0 0.00 0.00 0.01 97 1012.1
20260510072703 49 6 0.0 0.0 0.00 0.00 0.01 97 1012.1
20260510072544 49 6 0.0 0.0 0.00 0.00 0.01 96 1012.1
20260510072426 49 6 0.0 0.0 0.00 0.00 0.01 96 1012.1
20260510072348 49 6 0.0 0.0 0.00 0.00 0.01 96 1012.1
20260510072229 49 6 0.0 0.0 0.00 0.00 0.01 96 1012.1
20260510072133 49 6 0.0 0.0 0.00 0.00 0.01 96 1012.1
20260510072035 49 6 0.0 0.0 0.00 0.00 0.01 96 1012.1
20260510071936 49 6 0.0 0.0 0.00 0.00 0.01 96 1012.1
20260510071835 49 7 0.0 0.0 0.00 0.00 0.01 96 1012.1
20260510071742 49 6 0.0 0.0 0.00 0.00 0.01 96 1012.1
20260510071643 49 6 0.0 0.0 0.00 0.00 0.01 96 1012.1
20260510071526 49 6 0.0 0.0 0.00 0.00 0.01 96 1012.1
20260510071426 49 6 0.0 0.0 0.00 0.00 0.01 96 1012.1
20260510071328 49 7 0.0 0.0 0.00 0.00 0.01 96 1012.1
20260510071230 49 7 0.0 0.0 0.00 0.00 0.01 96 1012.1
20260510071157 49 7 0.0 0.0 0.00 0.00 0.01 96 1012.1
20260510071034 49 7 0.0 0.0 0.00 0.00 0.01 96 1012.1
20260510070935 48 7 0.0 0.0 0.00 0.00 0.01 96 1012.1
20260510070834 48 7 0.0 0.0 0.00 0.00 0.01 96 1012.1
20260510070735 48 7 0.0 0.0 0.00 0.00 0.01 96 1012.1
20260510070633 49 7 0.0 0.0 0.00 0.00 0.01 96 1012.1
20260510070535 48 7 0.0 0.0 0.00 0.00 0.01 96 1012.1
20260510070501 49 7 0.0 0.0 0.00 0.00 0.01 96 1012.1
20260510070340 48 7 0.0 0.0 0.00 0.00 0.01 96 1012.1
20260510070241 49 7 0.0 0.0 0.00 0.00 0.01 96 1012.1
20260510070203 49 10 0.0 0.0 0.00 0.00 0.01 96 1012.1
20260510070024 49 16 0.0 0.0 0.00 0.00 0.01 96 1012.1
20260510065927 49 25 0.0 0.0 0.00 0.00 0.01 96 1012.1
20260510065827 49 71 0.0 0.0 0.00 0.00 0.01 96 1011.7
20260510065752 49 71 0.0 0.0 0.00 0.00 0.01 96 1011.7
20260510065633 49 71 0.0 0.0 0.00 0.00 0.01 96 1011.7
20260510065534 49 71 0.0 0.0 0.00 0.00 0.01 96 1011.7
20260510065458 49 71 0.0 0.0 0.00 0.00 0.01 96 1011.7
20260510065339 49 71 0.0 0.0 0.00 0.00 0.01 96 1011.7
20260510065306 49 71 0.0 0.0 0.00 0.00 0.01 96 1011.7
20260510065124 49 71 0.0 0.0 0.00 0.00 0.01 96 1011.7
20260510065030 49 71 0.0 0.0 0.00 0.00 0.01 96 1011.7
20260510064931 49 71 0.0 0.0 0.00 0.00 0.01 96 1011.7
20260510064829 49 71 0.0 0.0 0.00 0.00 0.01 96 1011.7
20260510064751 49 71 0.0 0.0 0.00 0.00 0.01 96 1011.7
20260510064628 49 71 0.0 0.0 0.00 0.00 0.01 96 1011.7
20260510064531 49 71 0.0 0.0 0.00 0.00 0.01 96 1011.7
20260510064429 49 71 0.0 0.0 0.00 0.00 0.01 96 1011.7
20260510064335 49 71 0.0 0.0 0.00 0.00 0.01 96 1011.8
20260510064235 49 71 0.0 0.0 0.00 0.00 0.01 96 1011.8
20260510064200 49 71 0.0 0.0 0.00 0.00 0.01 96 1011.8
20260510064039 49 71 0.0 0.0 0.00 0.00 0.01 96 1011.8
20260510063940 49 71 0.0 0.0 0.00 0.00 0.01 96 1011.8
20260510063901 49 71 0.0 0.0 0.00 0.00 0.01 96 1011.8
20260510063741 49 71 0.0 0.0 0.00 0.00 0.01 96 1011.8
20260510063627 49 71 0.0 0.0 0.00 0.00 0.01 96 1011.8
20260510063530 49 71 0.0 0.0 0.00 0.00 0.01 96 1011.8
20260510063446 49 71 0.0 0.0 0.00 0.00 0.01 96 1011.8
20260510063327 49 71 0.0 0.0 0.00 0.00 0.01 96 1011.8
20260510063228 49 71 0.0 0.0 0.00 0.00 0.01 96 1011.8
20260510063130 49 71 0.0 0.0 0.00 0.00 0.01 96 1011.8
20260510063033 49 71 0.0 0.0 0.00 0.00 0.01 96 1011.8
20260510062937 49 71 0.0 0.0 0.00 0.00 0.01 96 1011.8
20260510062835 49 71 0.0 0.0 0.00 0.00 0.01 96 1012.0
20260510062736 49 71 0.0 0.0 0.00 0.00 0.01 96 1012.0
20260510062638 49 71 0.0 0.0 0.00 0.00 0.01 96 1012.0
20260510062540 49 71 0.0 0.0 0.00 0.00 0.01 96 1012.0
20260510062440 49 71 0.0 0.0 0.00 0.00 0.01 96 1012.0
20260510062341 49 71 0.0 0.0 0.00 0.00 0.01 96 1012.0
20260510062224 49 71 0.0 0.0 0.00 0.00 0.01 96 1012.0
20260510062125 49 71 0.0 0.0 0.00 0.00 0.01 96 1012.0
20260510062027 49 71 0.0 0.0 0.00 0.00 0.01 96 1012.0
20260510061928 49 71 0.0 0.0 0.00 0.00 0.01 96 1012.0
20260510061826 49 71 0.0 0.0 0.00 0.00 0.01 96 1012.0
20260510061729 49 71 0.0 0.0 0.00 0.00 0.01 96 1012.0
20260510061651 49 71 0.0 0.0 0.00 0.00 0.01 96 1012.0
20260510061533 49 71 0.0 0.0 0.00 0.00 0.01 96 1012.0
20260510061429 49 71 0.0 0.0 0.00 0.00 0.01 96 1012.0
20260510061332 49 71 0.0 0.0 0.00 0.00 0.01 96 1012.0
20260510061232 49 71 0.0 0.0 0.00 0.00 0.01 96 1012.0
20260510061134 49 71 0.0 0.0 0.00 0.00 0.01 96 1012.0
20260510061055 49 71 0.0 0.0 0.00 0.00 0.01 96 1012.0
20260510060938 49 71 0.0 0.0 0.00 0.00 0.01 96 1012.0
20260510060840 49 71 0.0 0.0 0.00 0.00 0.01 96 1012.0
20260510060741 49 71 0.0 0.0 0.00 0.00 0.01 96 1012.0
20260510060639 49 71 0.0 0.0 0.00 0.00 0.01 96 1012.0
20260510060541 50 71 0.0 0.0 0.00 0.00 0.01 96 1012.0
20260510060443 50 71 0.0 0.0 0.00 0.00 0.01 96 1012.0
20260510060328 50 71 0.0 0.0 0.00 0.00 0.01 96 1012.0
20260510060247 50 71 0.0 0.0 0.00 0.00 0.01 96 1012.0
20260510060148 50 71 0.0 0.0 0.00 0.00 0.01 96 1012.0
20260510060029 50 71 0.0 0.0 0.00 0.00 0.01 96 1012.0
20260510055931 50 71 0.0 0.0 0.00 0.00 0.01 96 1012.0
20260510055828 50 71 0.0 0.0 0.00 0.00 0.01 96 1012.1
20260510055731 50 71 0.0 0.0 0.00 0.00 0.01 96 1012.1
20260510055632 50 71 0.0 0.0 0.00 0.00 0.01 96 1012.1
20260510055539 50 71 0.0 0.0 0.00 0.00 0.01 96 1012.1
20260510055439 50 71 0.0 0.0 0.00 0.00 0.01 96 1012.1
20260510055341 50 71 0.0 0.0 0.00 0.00 0.01 96 1012.1
20260510055239 50 71 0.0 0.0 0.00 0.00 0.01 96 1012.1
20260510055140 50 71 0.0 0.0 0.00 0.00 0.01 96 1012.1
20260510055039 50 71 0.0 0.0 0.00 0.00 0.01 96 1012.1
20260510054944 50 71 0.0 0.0 0.00 0.00 0.01 96 1012.1
20260510054842 50 71 0.0 0.0 0.00 0.00 0.01 96 1012.1
20260510054744 50 71 0.0 0.0 0.00 0.00 0.01 96 1012.1
20260510054642 50 71 0.0 0.0 0.00 0.00 0.01 96 1012.1
20260510054544 50 71 0.0 0.0 0.00 0.00 0.01 96 1012.1
20260510054504 50 71 0.0 0.0 0.00 0.00 0.01 96 1012.1
20260510054345 50 71 0.0 0.0 0.00 0.00 0.01 96 1012.1
20260510054226 50 71 0.0 0.0 0.00 0.00 0.01 96 1012.1
20260510054129 50 71 0.0 0.0 0.00 0.00 0.01 96 1012.1
20260510054030 50 71 0.0 0.0 0.00 0.00 0.01 96 1012.1
20260510053951 50 71 0.0 0.0 0.00 0.00 0.01 96 1012.1
20260510053829 50 71 0.0 0.0 0.00 0.00 0.01 96 1012.1
20260510053731 50 71 0.0 0.0 0.00 0.00 0.01 96 1012.1
20260510053632 50 71 0.0 0.0 0.00 0.00 0.01 96 1012.1
20260510053538 50 71 0.0 0.0 0.00 0.00 0.01 96 1012.1
20260510053435 50 71 0.0 0.0 0.00 0.00 0.01 96 1012.1
20260510053337 50 71 0.0 0.0 0.00 0.00 0.01 96 1012.1
20260510053235 50 71 0.0 0.0 0.00 0.00 0.01 96 1012.1
20260510053136 50 71 0.0 0.0 0.00 0.00 0.01 96 1012.1
20260510053039 50 71 0.0 0.0 0.00 0.00 0.01 96 1012.1
20260510052959 50 71 0.0 0.0 0.00 0.00 0.01 96 1012.1
20260510052840 50 71 0.0 0.0 0.00 0.00 0.01 96 1012.1
20260510052721 50 71 0.0 0.0 0.00 0.00 0.01 96 1012.1
20260510052645 50 71 0.0 0.0 0.00 0.00 0.01 96 1012.1
20260510052543 50 71 0.0 0.0 0.00 0.00 0.01 96 1012.1
20260510052503 50 71 0.0 0.0 0.00 0.00 0.01 96 1012.1
20260510052344 50 71 0.0 0.0 0.00 0.00 0.01 96 1012.1
20260510052241 50 71 0.0 0.0 0.00 0.00 0.01 96 1012.1
20260510052146 50 71 0.0 0.0 0.00 0.00 0.01 96 1012.1
20260510052044 50 71 0.0 0.0 0.00 0.00 0.01 96 1012.1
20260510051945 50 71 0.0 0.0 0.00 0.00 0.01 96 1012.1
20260510051842 51 71 0.0 0.0 0.00 0.00 0.01 96 1012.1
20260510051746 51 71 0.0 0.0 0.00 0.00 0.01 96 1012.1
20260510051624 51 71 0.0 0.0 0.00 0.00 0.01 96 1012.1
20260510051547 51 71 0.0 0.0 0.00 0.00 0.01 96 1012.1
20260510051427 51 71 0.0 0.0 0.00 0.00 0.01 96 1012.1
20260510051329 51 71 0.0 0.0 0.00 0.00 0.01 96 1012.2
20260510051226 51 71 0.0 0.0 0.00 0.00 0.01 96 1012.2
20260510051126 51 71 0.0 0.0 0.00 0.00 0.01 96 1012.2
20260510051029 51 71 0.0 0.0 0.00 0.00 0.01 96 1012.2
20260510050928 51 71 0.0 0.0 0.00 0.00 0.01 96 1012.2
20260510050830 51 71 0.0 0.0 0.00 0.00 0.01 96 1012.2
20260510050732 51 71 0.0 0.0 0.00 0.00 0.01 96 1012.2
20260510050634 51 71 0.0 0.0 0.00 0.00 0.01 96 1012.2
20260510050536 51 71 0.0 0.0 0.00 0.00 0.01 96 1012.2
20260510050434 51 71 0.0 0.0 0.00 0.00 0.01 96 1012.2
20260510050336 51 71 0.0 0.0 0.00 0.00 0.01 96 1012.2
20260510050232 51 71 0.0 0.0 0.00 0.00 0.01 96 1012.2
20260510050137 51 71 0.0 0.0 0.00 0.00 0.01 96 1012.2
20260510050036 51 71 0.0 0.0 0.00 0.00 0.01 96 1012.2
20260510045937 51 71 0.0 0.0 0.00 0.00 0.01 96 1012.2
20260510045835 51 71 0.0 0.0 0.00 0.00 0.01 96 1012.4
20260510045736 51 71 0.0 0.0 0.00 0.00 0.01 96 1012.4
20260510045638 51 71 0.0 0.0 0.00 0.00 0.01 96 1012.4
20260510045544 51 71 0.0 0.0 0.00 0.00 0.01 96 1012.4
20260510045441 51 71 0.0 0.0 0.00 0.00 0.01 96 1012.4
20260510045343 51 71 0.0 0.0 0.00 0.00 0.01 96 1012.4
20260510045306 51 71 0.0 0.0 0.00 0.00 0.00 96 1012.4
20260510045124 51 71 0.0 0.0 0.00 0.00 0.00 96 1012.4
20260510045027 51 71 0.0 0.0 0.00 0.00 0.00 96 1012.4
20260510044946 51 71 0.0 0.0 0.00 0.00 0.00 96 1012.4
20260510044828 51 71 0.0 0.0 0.00 0.00 0.00 96 1012.4
20260510044730 51 71 0.0 0.0 0.00 0.00 0.00 96 1012.4
20260510044628 51 71 0.0 0.0 0.00 0.00 0.00 96 1012.4
20260510044531 51 71 0.0 0.0 0.00 0.00 0.00 96 1012.4
20260510044430 51 71 0.0 0.0 0.00 0.00 0.00 96 1012.4
20260510044336 51 71 0.0 0.0 0.00 0.00 0.00 96 1012.5
20260510044241 51 71 0.0 0.0 0.00 0.00 0.00 96 1012.5
20260510044142 51 71 0.0 0.0 0.00 0.00 0.00 96 1012.5
20260510044044 51 71 0.0 0.0 0.00 0.00 0.00 96 1012.5
20260510043944 51 71 0.0 0.0 0.00 0.00 0.00 96 1012.5
20260510043843 51 71 0.0 0.0 0.00 0.00 0.00 96 1012.5
20260510043727 51 71 0.0 0.0 0.00 0.00 0.00 96 1012.5
20260510043629 51 71 0.0 0.0 0.00 0.00 0.00 96 1012.5
20260510043554 51 71 0.0 0.0 0.00 0.00 0.00 96 1012.5
20260510043431 51 71 0.0 0.0 0.00 0.00 0.00 96 1012.5
20260510043332 51 71 0.0 0.0 0.00 0.00 0.00 96 1012.5
20260510043230 51 71 0.0 0.0 0.00 0.00 0.00 96 1012.5
20260510043131 51 71 0.0 0.0 0.00 0.00 0.00 96 1012.5
20260510043030 51 71 0.0 0.0 0.00 0.00 0.00 96 1012.5
20260510042931 51 71 0.0 0.0 0.00 0.00 0.00 96 1012.5
20260510042836 51 71 0.0 0.0 0.00 0.00 0.00 96 1012.4
20260510042738 51 71 0.0 0.0 0.00 0.00 0.00 96 1012.4
20260510042639 51 71 0.0 0.0 0.00 0.00 0.00 96 1012.4
20260510042600 51 71 0.0 0.0 0.00 0.00 0.00 96 1012.4
20260510042501 51 71 0.0 0.0 0.00 0.00 0.00 95 1012.4
20260510042402 51 71 0.0 0.0 0.00 0.00 0.00 95 1012.4
20260510042240 51 71 0.0 0.0 0.00 0.00 0.00 95 1012.4
20260510042128 51 71 0.0 0.0 0.00 0.00 0.00 95 1012.4
20260510042027 51 71 0.0 0.0 0.00 0.00 0.00 95 1012.4
20260510041927 51 71 0.0 0.0 0.00 0.00 0.00 95 1012.4
20260510041828 51 71 0.0 0.0 0.00 0.00 0.00 95 1012.4
20260510041730 51 71 0.0 0.0 0.00 0.00 0.00 95 1012.4
20260510041627 51 71 0.0 0.0 0.00 0.00 0.00 95 1012.4
20260510041529 51 71 0.0 0.0 0.00 0.00 0.00 95 1012.4
20260510041433 51 71 0.0 0.0 0.00 0.00 0.00 95 1012.4
20260510041335 51 71 0.0 0.0 0.00 0.00 0.00 95 1012.5
20260510041232 51 71 0.0 0.0 0.00 0.00 0.00 96 1012.5
20260510041134 51 71 0.0 0.0 0.00 0.00 0.00 95 1012.5
20260510041032 51 71 0.0 0.0 0.00 0.00 0.00 95 1012.5
20260510040932 51 71 0.0 0.0 0.00 0.00 0.00 95 1012.5
20260510040854 52 71 0.0 0.0 0.00 0.00 0.00 95 1012.5
20260510040738 52 71 0.0 0.0 0.00 0.00 0.00 96 1012.5
20260510040635 52 71 0.0 0.0 0.00 0.00 0.00 96 1012.5
20260510040548 52 71 0.0 0.0 0.00 0.00 0.00 96 1012.5
20260510040449 52 71 0.0 0.0 0.00 0.00 0.00 96 1012.5
20260510040330 52 71 0.0 0.0 0.00 0.00 0.00 96 1012.5
20260510040228 52 71 0.0 0.0 0.00 0.00 0.00 96 1012.5
20260510040129 52 71 0.0 0.0 0.00 0.00 0.00 96 1012.5
20260510040055 52 71 0.0 0.0 0.00 0.00 0.00 96 1012.5
20260510035936 52 71 0.0 0.0 0.00 0.00 0.12 96 1012.5
20260510035833 52 71 0.0 0.0 0.00 0.00 0.12 96 1012.2
20260510035736 52 71 0.0 0.0 0.00 0.00 0.12 96 1012.2
20260510035637 52 71 0.0 0.0 0.00 0.00 0.12 96 1012.2
20260510035540 52 71 0.0 0.0 0.00 0.00 0.12 96 1012.2
20260510035424 52 71 0.0 0.0 0.00 0.00 0.12 96 1012.2
20260510035329 52 71 0.0 0.0 0.00 0.00 0.12 96 1012.2
20260510035247 52 71 0.0 0.0 0.00 0.00 0.12 96 1012.2
20260510035128 52 71 0.0 0.0 0.00 0.00 0.12 95 1012.2
20260510035029 51 71 0.0 0.0 0.00 0.00 0.12 96 1012.2
20260510034930 51 71 0.0 0.0 0.00 0.00 0.12 95 1012.2
20260510034828 52 71 0.0 0.0 0.00 0.00 0.12 95 1012.2
20260510034749 51 71 0.0 0.0 0.00 0.00 0.12 96 1012.2
20260510034631 51 71 0.0 0.0 0.00 0.00 0.12 95 1012.2
20260510034533 51 71 0.0 0.0 0.00 0.00 0.12 95 1012.2
20260510034431 51 71 0.0 0.0 0.00 0.00 0.12 95 1012.2
20260510034332 51 71 0.0 0.0 0.00 0.00 0.12 95 1012.1
20260510034230 51 71 0.0 0.0 0.00 0.00 0.12 95 1012.1
20260510034131 51 71 0.0 0.0 0.00 0.00 0.12 95 1012.1
20260510034052 51 71 0.0 0.0 0.00 0.00 0.12 95 1012.1
20260510033935 51 71 0.0 0.0 0.00 0.00 0.12 95 1012.1
20260510033832 51 71 0.0 0.0 0.00 0.00 0.12 95 1012.1
20260510033734 51 71 0.0 0.0 0.00 0.00 0.12 95 1012.1
20260510033656 51 71 0.0 0.0 0.00 0.00 0.12 95 1012.1
20260510033536 51 71 0.0 0.0 0.00 0.00 0.12 95 1012.1
20260510033436 52 71 0.0 0.0 0.00 0.00 0.12 95 1012.1
20260510033359 52 71 0.0 0.0 0.00 0.00 0.12 95 1012.1
20260510033243 52 71 0.0 0.0 0.00 0.00 0.12 95 1012.1
20260510033143 52 71 0.0 0.0 0.00 0.00 0.12 95 1012.1
20260510033042 52 71 0.0 0.0 0.00 0.00 0.12 95 1012.1
20260510032942 52 71 0.0 0.0 0.00 0.00 0.12 95 1012.1
20260510032842 52 71 0.0 0.0 0.00 0.00 0.12 95 1012.1
20260510032744 52 71 0.0 0.0 0.00 0.00 0.12 95 1012.1
20260510032627 52 71 0.0 0.0 0.00 0.00 0.12 95 1012.1
20260510032529 52 71 0.0 0.0 0.00 0.00 0.12 95 1012.1
20260510032427 52 71 0.0 0.0 0.00 0.00 0.12 95 1012.1
20260510032347 52 71 0.0 0.0 0.00 0.00 0.12 95 1012.1
20260510032225 52 71 0.0 0.0 0.00 0.00 0.12 95 1012.1
20260510032128 52 71 0.0 0.0 0.00 0.00 0.12 95 1012.1
20260510032030 52 71 0.0 0.0 0.00 0.00 0.12 95 1012.1
20260510031934 52 71 0.0 0.0 0.00 0.00 0.12 95 1012.1
20260510031831 52 71 0.0 0.0 0.00 0.00 0.12 95 1012.1
20260510031753 52 71 0.0 0.0 0.00 0.00 0.12 95 1012.1
20260510031651 53 71 0.0 0.0 0.00 0.00 0.12 95 1012.1
20260510031532 53 71 0.0 0.0 0.00 0.00 0.12 95 1012.1
20260510031431 53 71 0.0 0.0 0.00 0.00 0.12 95 1012.1
20260510031333 53 71 0.0 0.0 0.00 0.00 0.12 96 1012.1
20260510031235 53 71 0.0 0.0 0.00 0.00 0.12 96 1012.1
20260510031135 52 71 0.0 0.0 0.00 0.00 0.12 96 1012.1
20260510031055 52 71 0.0 0.0 0.00 0.00 0.12 96 1012.1
20260510030955 52 71 0.0 0.0 0.00 0.00 0.12 95 1012.1
20260510030832 52 71 0.0 0.0 0.00 0.00 0.12 95 1012.1
20260510030734 52 71 0.0 0.0 0.00 0.00 0.12 95 1012.1
20260510030632 52 71 0.0 0.0 0.00 0.00 0.12 95 1012.1
20260510030535 52 71 0.0 0.0 0.00 0.00 0.12 95 1012.1
20260510030501 52 71 0.0 0.0 0.00 0.00 0.12 95 1012.1
20260510030321 52 71 0.0 0.0 0.00 0.00 0.12 95 1012.1
20260510030225 52 71 0.0 0.0 0.00 0.00 0.12 95 1012.1
20260510030127 52 71 0.0 0.0 0.00 0.00 0.12 95 1012.1
20260510030048 52 71 0.0 0.0 0.00 0.00 0.12 95 1012.1
20260510030008 52 71 0.0 0.0 0.00 0.00 0.12 95 1012.1
20260510025824 52 71 0.0 0.0 0.00 0.00 0.12 95 1012.1
20260510025730 52 71 0.0 0.0 0.00 0.00 0.12 95 1012.1
20260510025629 52 71 0.0 0.0 0.00 0.00 0.12 95 1012.1
20260510025531 52 71 0.0 0.0 0.00 0.00 0.12 95 1012.1
20260510025452 52 71 0.0 0.0 0.00 0.00 0.12 95 1012.1
20260510025332 52 71 0.0 0.0 0.00 0.00 0.12 94 1012.1
20260510025233 52 71 0.0 0.0 0.00 0.00 0.12 94 1012.1
20260510025135 52 71 0.0 0.0 0.00 0.00 0.12 94 1012.1
20260510025040 52 71 0.0 0.0 0.00 0.00 0.12 94 1012.1
20260510025000 52 71 0.0 0.0 0.00 0.00 0.12 94 1012.1
20260510024838 52 71 0.0 0.0 0.00 0.00 0.12 94 1012.1
20260510024740 52 71 0.0 0.0 0.00 0.00 0.12 94 1012.1
20260510024637 52 71 0.0 0.0 0.00 0.00 0.12 94 1012.1
20260510024539 52 71 0.0 0.0 0.00 0.00 0.12 95 1012.1
20260510024440 52 71 0.0 0.0 0.00 0.00 0.12 95 1012.1
20260510024407 53 71 0.0 0.0 0.00 0.00 0.12 95 1012.0
20260510024243 53 71 0.0 0.0 0.00 0.00 0.12 95 1012.0
20260510024146 53 71 0.0 0.0 0.00 0.00 0.12 95 1012.0
20260510024044 53 71 0.0 0.0 0.00 0.00 0.12 95 1012.0
20260510023944 53 71 0.0 0.0 0.00 0.00 0.12 95 1012.0
20260510023843 53 71 0.0 0.0 0.00 0.00 0.12 95 1012.0
20260510023726 53 71 0.0 0.0 0.00 0.00 0.12 95 1012.0
20260510023631 53 71 0.0 0.0 0.00 0.00 0.12 95 1012.0
20260510023534 53 71 0.0 0.0 0.00 0.00 0.12 95 1012.0
20260510023451 53 71 0.0 0.0 0.00 0.00 0.12 95 1012.0
20260510023333 53 71 0.0 0.0 0.00 0.00 0.12 95 1012.0
20260510023251 53 71 0.0 0.0 0.00 0.00 0.12 94 1012.0
20260510023130 53 71 0.0 0.0 0.00 0.00 0.12 94 1012.0
20260510023030 53 71 0.0 0.0 0.00 0.00 0.12 94 1012.0
20260510022939 53 71 0.0 0.0 0.00 0.00 0.12 95 1012.0
20260510022840 53 71 0.0 0.0 0.00 0.00 0.12 95 1012.1
20260510022740 53 71 0.0 0.0 0.00 0.00 0.12 95 1012.1
20260510022638 53 71 0.0 0.0 0.00 0.00 0.12 95 1012.1
20260510022541 53 71 0.0 0.0 0.00 0.00 0.12 94 1012.1
20260510022443 53 71 0.0 0.0 0.00 0.00 0.12 94 1012.1
20260510022404 53 71 0.0 0.0 0.00 0.00 0.12 94 1012.1
20260510022224 53 71 0.0 0.0 0.00 0.00 0.12 94 1012.1
20260510022125 53 71 0.0 0.0 0.00 0.00 0.12 94 1012.1
20260510022027 53 71 0.0 0.0 0.00 0.00 0.12 94 1012.1
20260510021927 53 71 0.0 0.0 0.00 0.00 0.12 94 1012.1
20260510021826 53 71 0.0 0.0 0.00 0.00 0.12 94 1012.1
20260510021727 53 71 0.0 0.0 0.00 0.00 0.12 94 1012.1
20260510021630 53 71 0.0 0.0 0.00 0.00 0.12 94 1012.1
20260510021532 53 71 0.0 0.0 0.00 0.00 0.12 94 1012.1
20260510021450 53 71 0.0 0.0 0.00 0.00 0.12 94 1012.1
20260510021350 53 71 0.0 0.0 0.00 0.00 0.12 94 1012.0
20260510021228 53 71 0.0 0.0 0.00 0.00 0.12 94 1012.0
20260510021149 53 71 0.0 0.0 0.00 0.00 0.12 94 1012.0
20260510021029 53 71 0.0 0.0 0.00 0.00 0.12 94 1012.0
20260510020930 53 71 0.0 0.0 0.00 0.00 0.12 94 1012.0
20260510020833 53 71 0.0 0.0 0.00 0.00 0.12 94 1012.0
20260510020734 53 71 0.0 0.0 0.00 0.00 0.12 94 1012.0
20260510020655 53 71 0.0 0.0 0.00 0.00 0.12 94 1012.0
20260510020556 53 71 0.0 0.0 0.00 0.00 0.12 94 1012.0
20260510020436 53 71 0.0 0.0 0.00 0.00 0.12 94 1012.0
20260510020337 53 71 0.0 0.0 0.00 0.00 0.12 94 1012.0
20260510020233 53 71 0.0 0.0 0.00 0.00 0.12 94 1012.0
20260510020134 53 71 0.0 0.0 0.00 0.00 0.12 94 1012.0
20260510020038 53 71 0.0 0.0 0.00 0.00 0.12 94 1012.0
20260510015939 54 71 0.0 0.0 0.00 0.00 0.12 94 1012.0
20260510015900 54 71 0.0 0.0 0.00 0.00 0.12 94 1012.1
20260510015740 54 71 0.0 0.0 0.00 0.00 0.12 94 1012.1
20260510015642 54 71 0.0 0.0 0.00 0.00 0.12 94 1012.1
20260510015543 54 71 0.0 0.0 0.00 0.00 0.12 94 1012.1
20260510015440 54 71 0.0 0.0 0.00 0.00 0.12 94 1012.1
20260510015346 54 71 0.0 0.0 0.00 0.00 0.12 94 1012.1
20260510015224 54 71 0.0 0.0 0.00 0.00 0.12 94 1012.1
20260510015146 54 71 0.0 0.0 0.00 0.00 0.12 94 1012.1
20260510015026 54 71 0.0 0.0 0.00 0.00 0.12 94 1012.1
20260510014926 54 71 0.0 0.0 0.00 0.00 0.12 94 1012.1
20260510014828 54 71 0.0 0.0 0.00 0.00 0.12 94 1012.1
20260510014734 54 71 0.0 0.0 0.00 0.00 0.12 94 1012.1
20260510014636 54 71 0.0 0.0 0.00 0.00 0.12 94 1012.1
20260510014538 54 71 0.0 0.0 0.00 0.00 0.12 94 1012.1
20260510014435 54 71 0.0 0.0 0.00 0.00 0.12 94 1012.1
20260510014335 54 71 0.0 0.0 0.00 0.00 0.12 94 1012.1
20260510014235 54 71 0.0 0.0 0.00 0.00 0.12 94 1012.1
20260510014137 54 71 0.0 0.0 0.00 0.00 0.12 94 1012.1
20260510014039 54 71 0.0 0.0 0.00 0.00 0.12 94 1012.1
20260510013940 54 71 0.0 0.0 0.00 0.00 0.12 94 1012.1
20260510013838 54 71 0.0 0.0 0.00 0.00 0.12 94 1012.1
20260510013740 54 71 0.0 0.0 0.00 0.00 0.12 94 1012.1
20260510013638 54 71 0.0 0.0 0.00 0.00 0.12 94 1012.1
20260510013540 54 71 0.0 0.0 0.00 0.00 0.12 94 1012.1
20260510013500 54 71 0.0 0.0 0.00 0.00 0.12 94 1012.1
20260510013345 54 71 0.0 0.0 0.00 0.00 0.12 94 1012.1
20260510013222 54 71 0.0 0.0 0.00 0.00 0.12 94 1012.1
20260510013146 54 71 0.0 0.0 0.00 0.00 0.12 94 1012.1
20260510013025 54 71 0.0 0.0 0.00 0.00 0.12 94 1012.1
20260510012945 54 71 0.0 0.0 0.00 0.00 0.12 94 1012.1
20260510012827 54 71 0.0 0.0 0.00 0.00 0.12 94 1011.7
20260510012733 54 71 0.0 0.0 0.00 0.00 0.12 94 1011.7
20260510012631 54 71 0.0 0.0 0.00 0.00 0.12 94 1011.7
20260510012554 54 71 0.0 0.0 0.00 0.00 0.12 93 1011.7
20260510012433 54 71 0.0 0.0 0.00 0.00 0.12 93 1011.7
20260510012358 54 71 0.0 0.0 0.00 0.00 0.12 93 1011.7
20260510012241 55 71 0.0 0.0 0.00 0.00 0.12 94 1011.7
20260510012124 55 71 0.0 0.0 0.00 0.00 0.12 94 1011.7
20260510012034 55 71 0.0 0.0 0.00 0.00 0.12 94 1011.7
20260510011958 55 71 0.0 0.0 0.00 0.00 0.12 94 1011.7
20260510011834 55 71 0.0 0.0 0.00 0.00 0.12 93 1011.7
20260510011736 55 71 0.0 0.0 0.00 0.00 0.12 93 1011.7
20260510011637 55 71 0.0 0.0 0.00 0.00 0.12 93 1011.7
20260510011539 55 71 0.0 0.0 0.00 0.00 0.12 93 1011.7
20260510011435 55 71 0.0 0.0 0.00 0.00 0.12 94 1011.7
20260510011340 55 71 0.0 0.0 0.00 0.00 0.12 93 1011.7
20260510011242 55 71 0.0 0.0 0.00 0.00 0.12 94 1011.7
20260510011143 55 71 0.0 0.0 0.00 0.00 0.12 94 1011.7
20260510011046 55 71 0.0 0.0 0.00 0.00 0.12 94 1011.7
20260510011007 55 71 0.0 0.0 0.00 0.00 0.12 94 1011.7
20260510010843 55 71 0.0 0.0 0.00 0.00 0.12 94 1011.7
20260510010745 55 71 0.0 0.0 0.00 0.00 0.12 94 1011.7
20260510010627 55 71 0.0 0.0 0.00 0.00 0.12 93 1011.7
20260510010530 55 71 0.0 0.0 0.00 0.00 0.12 93 1011.7
20260510010430 55 71 0.0 0.0 0.00 0.00 0.12 93 1011.7
20260510010352 55 71 0.0 0.0 0.00 0.00 0.12 93 1011.7
20260510010230 55 71 0.0 0.0 0.00 0.00 0.12 93 1011.7
20260510010134 55 71 0.0 0.0 0.00 0.00 0.12 93 1011.7
20260510010041 55 71 0.0 0.0 0.00 0.00 0.12 93 1011.7
20260510010005 55 71 0.0 0.0 0.00 0.00 0.12 93 1011.7
20260510005842 55 71 0.0 0.0 0.00 0.00 0.12 93 1011.6
20260510005744 55 71 0.0 0.0 0.00 0.00 0.12 93 1011.6
20260510005643 55 71 0.0 0.0 0.00 0.00 0.12 93 1011.6
20260510005545 55 71 0.0 0.0 0.00 0.00 0.12 93 1011.6
20260510005421 55 71 0.0 0.0 0.00 0.00 0.12 93 1011.6
20260510005331 55 71 0.0 0.0 0.00 0.00 0.12 93 1011.6
20260510005227 55 71 0.0 0.0 0.00 0.00 0.12 93 1011.6
20260510005128 55 71 0.0 0.0 0.00 0.00 0.12 93 1011.6
20260510005047 55 71 0.0 0.0 0.00 0.00 0.12 93 1011.6
20260510004946 55 71 0.0 0.0 0.00 0.00 0.12 93 1011.6
20260510004824 55 71 0.0 0.0 0.00 0.00 0.12 93 1011.6
20260510004727 55 71 0.0 0.0 0.00 0.00 0.12 93 1011.6
20260510004631 55 71 0.0 0.0 0.00 0.00 0.12 93 1011.6
20260510004552 55 71 0.0 0.0 0.00 0.00 0.12 93 1011.6
20260510004428 55 71 0.0 0.0 0.00 0.00 0.12 93 1011.6
20260510004350 55 71 0.0 0.0 0.00 0.00 0.12 93 1011.5
20260510004231 55 71 0.0 0.0 0.00 0.00 0.12 93 1011.5
20260510004133 55 71 0.0 0.0 0.00 0.00 0.12 93 1011.5
20260510004031 55 71 0.0 0.0 0.00 0.00 0.12 93 1011.5
20260510003930 55 71 0.0 0.0 0.00 0.00 0.12 93 1011.5
20260510003832 55 71 0.0 0.0 0.00 0.00 0.12 93 1011.5
20260510003755 55 71 0.0 0.0 0.00 0.00 0.12 93 1011.5
20260510003631 55 71 0.0 0.0 0.00 0.00 0.12 92 1011.5
20260510003533 55 71 0.0 0.0 0.00 0.00 0.12 92 1011.5
20260510003431 55 71 0.0 0.0 0.00 0.00 0.12 92 1011.5
20260510003332 55 71 0.0 0.0 0.00 0.00 0.12 92 1011.5
20260510003235 56 71 0.0 0.0 0.00 0.00 0.12 92 1011.5
20260510003141 56 71 0.0 0.0 0.00 0.00 0.12 92 1011.5
20260510003043 56 71 0.0 0.0 0.00 0.00 0.12 92 1011.5
20260510002943 56 71 0.0 0.0 0.00 0.00 0.12 92 1011.5
20260510002844 56 71 0.0 0.0 0.00 0.00 0.12 93 1011.6
20260510002746 56 71 0.0 0.0 0.00 0.00 0.12 93 1011.6
20260510002624 56 71 0.0 0.0 0.00 0.00 0.12 93 1011.6
20260510002530 56 71 0.0 0.0 0.00 0.00 0.12 93 1011.6
20260510002428 56 71 0.0 0.0 0.00 0.00 0.12 93 1011.6
20260510002331 56 71 0.0 0.0 0.00 0.00 0.12 93 1011.6
20260510002228 56 71 0.0 0.0 0.00 0.00 0.12 93 1011.6
20260510002129 56 71 0.0 0.0 0.00 0.00 0.12 93 1011.6
20260510002028 56 71 0.0 0.0 0.00 0.00 0.12 92 1011.6
20260510001937 56 71 0.0 0.0 0.00 0.00 0.12 92 1011.6
20260510001855 56 71 0.0 0.0 0.00 0.00 0.12 92 1011.6
20260510001736 56 71 0.0 0.0 0.00 0.00 0.12 92 1011.6
20260510001634 56 71 0.0 0.0 0.00 0.00 0.12 92 1011.6
20260510001536 56 71 0.0 0.0 0.00 0.00 0.12 92 1011.6
20260510001433 56 71 0.0 0.0 0.00 0.00 0.12 92 1011.6
20260510001354 56 71 0.0 0.0 0.00 0.00 0.12 92 1011.3
20260510001235 56 71 0.0 0.0 0.00 0.00 0.12 92 1011.3
20260510001145 56 71 0.0 0.0 0.00 0.00 0.12 92 1011.3
20260510001023 56 71 0.0 0.0 0.00 0.00 0.12 92 1011.3
20260510000947 56 71 0.0 0.0 0.00 0.00 0.12 92 1011.3
20260510000824 56 71 0.0 0.0 0.00 0.00 0.12 92 1011.3
20260510000746 56 71 0.0 0.0 0.00 0.00 0.12 92 1011.3
20260510000624 56 71 0.0 0.0 0.00 0.00 0.12 92 1011.3
20260510000531 56 71 0.0 0.0 0.00 0.00 0.12 92 1011.3
20260510000428 56 71 0.0 0.0 0.00 0.00 0.12 92 1011.3
20260510000356 56 71 0.0 0.0 0.00 0.00 0.12 92 1011.3
20260510000237 56 71 0.0 0.0 0.00 0.00 0.12 92 1011.3
20260510000200 56 71 0.0 0.0 0.00 0.00 0.12 92 1011.3
20260510000037 56 71 0.0 0.0 0.00 0.00 0.12 92 1011.3
20260509235937 56 71 0.0 0.0 0.00 0.00 0.12 92 1011.3
20260509235855 57 71 0.0 0.0 0.00 0.00 0.12 92 1011.3
20260509235740 56 71 0.0 0.0 0.00 0.00 0.12 92 1011.3
20260509235639 56 71 0.0 0.0 0.00 0.00 0.12 92 1011.3
20260509235539 57 71 0.0 0.0 0.00 0.00 0.12 91 1011.3
20260509235441 57 71 0.0 0.0 0.00 0.00 0.12 91 1011.3
20260509235405 57 71 0.0 0.0 0.00 0.00 0.12 91 1011.3
20260509235243 57 71 0.0 0.0 0.00 0.00 0.12 91 1011.3
20260509235129 57 71 0.0 0.0 0.00 0.00 0.12 91 1011.3
20260509235027 57 71 0.0 0.0 0.00 0.00 0.12 91 1011.3
20260509234927 57 71 0.0 0.0 0.00 0.00 0.12 91 1011.3
20260509234829 57 71 0.0 0.0 0.00 0.00 0.12 91 1011.3
20260509234751 57 71 0.0 0.0 0.00 0.00 0.12 91 1011.3
20260509234627 57 71 0.0 0.0 0.00 0.00 0.12 91 1011.3
20260509234529 57 71 0.0 0.0 0.00 0.00 0.12 91 1011.3
20260509234431 57 71 0.0 0.0 0.00 0.00 0.12 91 1011.3
20260509234331 57 71 0.0 0.0 0.00 0.00 0.12 91 1011.3
20260509234250 57 71 0.0 0.0 0.00 0.00 0.12 91 1011.3
20260509234151 57 71 0.0 0.0 0.00 0.00 0.12 91 1011.3
20260509234029 57 71 0.0 0.0 0.00 0.00 0.12 91 1011.3
20260509233929 57 71 0.0 0.0 0.00 0.00 0.12 91 1011.3
20260509233826 57 71 0.0 0.0 0.00 0.00 0.12 91 1011.3
20260509233727 57 71 0.0 0.0 0.00 0.00 0.12 91 1011.3
20260509233629 57 71 0.0 0.0 0.00 0.00 0.12 91 1011.3
20260509233535 57 71 0.0 0.0 0.00 0.00 0.12 91 1011.3
20260509233432 57 71 0.0 0.0 0.00 0.00 0.12 91 1011.3
20260509233335 57 71 0.0 0.0 0.00 0.00 0.12 91 1011.3
20260509233233 57 71 0.0 0.0 0.00 0.00 0.12 91 1011.3
20260509233133 57 71 0.0 0.0 0.00 0.00 0.12 91 1011.3
20260509233035 57 71 0.0 0.0 0.00 0.00 0.12 91 1011.3
20260509232943 57 71 0.0 0.0 0.00 0.00 0.12 91 1011.3
20260509232824 57 71 0.0 0.0 0.00 0.00 0.12 91 1011.1
20260509232725 57 71 0.0 0.0 0.00 0.00 0.12 91 1011.1
20260509232628 57 71 0.0 0.0 0.00 0.00 0.12 91 1011.1
20260509232550 57 71 0.0 0.0 0.00 0.00 0.12 91 1011.1
20260509232426 57 71 0.0 0.0 0.00 0.00 0.12 91 1011.1
20260509232349 57 71 0.0 0.0 0.00 0.00 0.12 91 1011.1
20260509232237 57 71 0.0 0.0 0.00 0.00 0.12 91 1011.1
20260509232159 57 71 0.0 0.0 0.00 0.00 0.12 91 1011.1
20260509232036 57 71 0.0 0.0 0.00 0.00 0.12 91 1011.1
20260509231936 57 71 0.0 0.0 0.00 0.00 0.12 91 1011.1
20260509231834 57 71 0.0 0.0 0.00 0.00 0.12 91 1011.1
20260509231735 57 71 0.0 0.0 0.00 0.00 0.12 91 1011.1
20260509231634 57 71 0.0 0.0 0.00 0.00 0.12 91 1011.1
20260509231539 57 71 0.0 0.0 0.00 0.00 0.12 91 1011.1
20260509231459 57 71 0.0 0.0 0.00 0.00 0.12 91 1011.1
20260509231339 57 71 0.0 0.0 0.00 0.00 0.12 91 1011.1
20260509231236 57 71 0.0 0.0 0.00 0.00 0.12 91 1011.1
20260509231137 57 71 0.0 0.0 0.00 0.00 0.12 91 1011.1
20260509231036 57 71 0.0 0.0 0.00 0.00 0.12 91 1011.1
20260509230935 57 71 0.0 0.0 0.00 0.00 0.12 91 1011.1
20260509230842 57 71 0.0 0.0 0.00 0.00 0.12 91 1011.1
20260509230744 57 71 0.0 0.0 0.00 0.00 0.12 91 1011.1
20260509230641 57 71 0.0 0.0 0.00 0.00 0.12 91 1011.1
20260509230543 57 71 0.0 0.0 0.00 0.00 0.12 91 1011.1
20260509230439 57 71 0.0 0.0 0.00 0.00 0.12 91 1011.1
20260509230341 57 71 0.0 0.0 0.00 0.00 0.12 91 1011.1
20260509230244 57 71 0.0 0.0 0.00 0.00 0.12 91 1011.1
20260509230124 57 70 0.0 0.0 0.00 0.00 0.12 91 1011.1
20260509230025 57 70 0.0 0.0 0.00 0.00 0.12 91 1011.1
20260509225926 57 70 0.0 0.0 0.00 0.00 0.12 91 1011.1
20260509225827 57 70 0.0 0.0 0.00 0.00 0.12 91 1011.3
20260509225729 57 70 0.0 0.0 0.00 0.00 0.12 91 1011.3
20260509225631 57 70 0.0 0.0 0.00 0.00 0.12 91 1011.3
20260509225535 57 70 0.0 0.0 0.00 0.00 0.12 91 1011.3
20260509225452 57 70 0.0 0.0 0.00 0.00 0.12 91 1011.3
20260509225332 57 70 0.0 0.0 0.00 0.00 0.12 91 1011.3
20260509225231 57 70 0.0 0.0 0.00 0.00 0.12 91 1011.3
20260509225132 57 70 0.0 0.0 0.00 0.00 0.12 91 1011.3
20260509225038 57 70 0.0 0.0 0.00 0.00 0.12 91 1011.3
20260509224958 57 70 0.0 0.0 0.00 0.00 0.12 91 1011.3
20260509224839 57 70 0.0 0.0 0.00 0.00 0.12 91 1011.3
20260509224740 57 70 0.0 0.0 0.00 0.00 0.12 91 1011.3
20260509224701 57 70 0.0 0.0 0.00 0.00 0.12 91 1011.3
20260509224542 57 70 0.0 0.0 0.00 0.00 0.12 91 1011.3
20260509224439 57 70 0.0 0.0 0.00 0.00 0.12 91 1011.3
20260509224324 57 70 0.0 0.0 0.00 0.00 0.12 91 1011.2
20260509224229 57 70 0.0 0.0 0.00 0.00 0.12 91 1011.2
20260509224134 57 70 0.0 0.0 0.00 0.00 0.12 91 1011.2
20260509224034 57 70 0.0 0.0 0.00 0.00 0.12 91 1011.2
20260509223933 57 70 0.0 0.0 0.00 0.00 0.12 91 1011.2
20260509223851 57 70 0.0 0.0 0.00 0.00 0.12 91 1011.2
20260509223732 57 70 0.0 0.0 0.00 0.00 0.12 91 1011.2
20260509223631 57 70 0.0 0.0 0.00 0.00 0.12 91 1011.2
20260509223537 57 70 0.0 0.0 0.00 0.00 0.12 91 1011.2
20260509223434 57 69 0.0 0.0 0.00 0.00 0.12 91 1011.2
20260509223339 57 69 0.0 0.0 0.00 0.00 0.12 91 1011.2
20260509223240 57 69 0.0 0.0 0.00 0.00 0.12 91 1011.2
20260509223123 57 69 0.0 0.0 0.00 0.00 0.12 91 1011.2
20260509223048 57 69 0.0 0.0 0.00 0.00 0.12 90 1011.2
20260509223008 57 69 0.0 0.0 0.00 0.00 0.12 90 1011.2
20260509222830 57 69 0.0 0.0 0.00 0.00 0.12 90 1011.6
20260509222730 57 68 0.0 0.0 0.00 0.00 0.12 90 1011.6
20260509222649 57 68 0.0 0.0 0.00 0.00 0.12 90 1011.6
20260509222530 57 68 0.0 0.0 0.00 0.00 0.12 90 1011.6
20260509222426 57 68 0.0 0.0 0.00 0.00 0.12 90 1011.6
20260509222327 57 68 0.0 0.0 0.00 0.00 0.12 90 1011.6
20260509222227 57 68 0.0 0.0 0.00 0.00 0.12 90 1011.6
20260509222133 57 68 0.0 0.0 0.00 0.00 0.12 90 1011.6
20260509222035 57 68 0.0 0.0 0.00 0.00 0.12 90 1011.6
20260509221952 57 68 0.0 0.0 0.00 0.00 0.12 89 1011.6
20260509221849 57 68 0.0 0.0 0.00 0.00 0.12 89 1011.6
20260509221730 57 68 0.0 0.0 0.00 0.00 0.12 89 1011.6
20260509221631 57 68 0.0 0.0 0.00 0.00 0.12 89 1011.6
20260509221554 57 68 0.0 0.0 0.00 0.00 0.12 89 1011.6
20260509221451 57 68 0.0 0.0 0.00 0.00 0.12 89 1011.6
20260509221336 57 68 0.0 0.0 0.00 0.00 0.12 89 1011.7
20260509221254 57 68 0.0 0.0 0.00 0.00 0.12 89 1011.7
20260509221134 57 68 0.0 0.0 0.00 0.00 0.12 89 1011.7
20260509221057 57 68 0.0 0.0 0.00 0.00 0.12 89 1011.7
20260509220936 57 68 0.0 0.0 0.00 0.00 0.12 89 1011.7
20260509220835 57 68 0.0 0.0 0.00 0.00 0.12 90 1011.7
20260509220738 57 68 0.0 0.0 0.00 0.00 0.12 90 1011.7
20260509220636 57 68 0.0 0.0 0.00 0.00 0.12 90 1011.7
20260509220554 57 8 0.0 0.0 0.00 0.00 0.12 90 1011.7
20260509220437 57 8 0.0 0.0 0.00 0.00 0.12 90 1011.7
20260509220403 57 7 0.0 0.0 0.00 0.00 0.12 90 1011.7
20260509220240 57 7 0.0 0.0 0.00 0.00 0.12 90 1011.7
20260509220141 57 7 0.0 0.0 0.00 0.00 0.12 89 1011.7
20260509220044 57 7 0.0 0.0 0.00 0.00 0.12 89 1011.7
20260509215929 57 7 0.0 0.0 0.00 0.00 0.12 89 1011.7
20260509215827 57 7 0.0 0.0 0.00 0.00 0.12 90 1012.0
20260509215729 57 7 0.0 0.0 0.00 0.00 0.12 89 1012.0
20260509215627 57 7 0.0 0.0 0.00 0.00 0.12 89 1012.0
20260509215533 57 7 0.0 0.0 0.00 0.00 0.12 89 1012.0
20260509215430 57 7 0.0 0.0 0.00 0.00 0.12 89 1012.0
20260509215331 57 7 0.0 0.0 0.00 0.00 0.12 89 1012.0
20260509215234 57 7 0.0 0.0 0.00 0.00 0.12 89 1012.0
20260509215155 57 7 0.0 0.0 0.00 0.00 0.12 89 1012.0
20260509215032 57 7 0.0 0.0 0.00 0.00 0.12 89 1012.0
20260509214953 57 7 0.0 0.0 0.00 0.00 0.12 89 1012.0
20260509214829 57 7 0.0 0.0 0.00 0.00 0.12 88 1012.0
20260509214751 57 7 0.0 0.0 0.00 0.00 0.12 88 1012.0
20260509214628 57 7 0.0 0.0 0.00 0.00 0.11 88 1012.0
20260509214530 57 7 0.0 0.0 0.00 0.00 0.11 87 1012.0
20260509214432 57 7 0.0 0.0 0.00 0.00 0.11 87 1012.0
20260509214354 57 7 0.0 0.0 0.00 0.00 0.10 87 1012.4
20260509214236 57 7 0.0 0.0 0.00 0.00 0.10 87 1012.4
20260509214138 57 7 0.0 0.0 0.00 0.00 0.10 86 1012.4
20260509214036 57 7 0.0 0.0 0.00 0.00 0.09 86 1012.4
20260509213937 57 7 0.0 0.0 0.00 0.00 0.09 86 1012.4
20260509213839 57 7 0.0 0.0 0.00 0.00 0.08 86 1012.4
20260509213745 57 7 0.0 0.0 0.00 0.00 0.08 84 1012.4
20260509213643 58 7 0.0 0.0 0.00 0.00 0.07 84 1012.4
20260509213525 58 7 0.0 0.0 0.00 0.00 0.06 84 1012.4
20260509213445 58 7 0.0 0.0 0.00 0.00 0.06 83 1012.4
20260509213406 58 7 0.0 0.0 0.00 0.00 0.06 83 1012.4
20260509213222 58 7 0.0 0.0 0.00 0.00 0.04 83 1012.4
20260509213131 58 7 0.0 0.0 0.00 0.00 0.04 83 1012.4
20260509213034 58 7 0.0 0.0 0.00 0.00 0.03 82 1012.4
20260509212934 58 7 0.0 0.0 0.00 0.00 0.02 82 1012.4
20260509212833 58 7 0.0 0.0 0.00 0.00 0.02 82 1011.8
20260509212734 58 7 0.0 0.0 0.00 0.00 0.01 81 1011.8
20260509212636 58 7 0.0 0.0 0.00 0.00 0.00 81 1011.8
20260509212558 58 7 0.0 0.0 0.00 0.00 0.00 81 1011.8
20260509212438 58 7 0.0 0.0 0.00 0.00 0.00 81 1011.8
20260509212344 58 7 0.0 0.0 0.00 0.00 0.00 80 1011.8
20260509212241 59 7 0.0 0.0 0.00 0.00 0.00 80 1011.8
20260509212141 59 7 0.0 0.0 0.00 0.00 0.00 79 1011.8
20260509212044 59 7 0.0 0.0 0.00 0.00 0.00 79 1011.8
20260509211945 59 7 0.0 0.0 0.00 0.00 0.00 79 1011.8
20260509211827 59 7 0.0 0.0 0.00 0.00 0.00 79 1011.8
20260509211732 59 7 0.0 0.0 0.00 0.00 0.00 78 1011.8
20260509211633 59 7 0.0 0.0 0.00 0.00 0.00 78 1011.8
20260509211535 59 7 0.0 0.0 0.00 0.00 0.00 78 1011.8
20260509211437 59 7 0.0 0.0 0.00 0.00 0.00 78 1011.8
20260509211358 59 7 0.0 0.0 0.00 0.00 0.00 78 1011.6
20260509211235 59 7 0.0 0.0 0.00 0.00 0.00 78 1011.6
20260509211141 59 7 0.0 0.0 0.00 0.00 0.00 77 1011.6
20260509211040 59 7 0.0 0.0 0.00 0.00 0.00 78 1011.6
20260509210942 59 7 0.0 0.0 0.00 0.00 0.00 77 1011.6
20260509210840 59 8 0.0 0.0 0.00 0.00 0.00 77 1011.6
20260509210742 59 8 0.0 0.0 0.00 0.00 0.00 77 1011.6
20260509210643 59 8 0.0 0.0 0.00 0.00 0.00 77 1011.6
20260509210606 59 8 0.0 0.0 0.00 0.00 0.00 77 1011.6
20260509210428 59 8 0.0 0.0 0.00 0.00 0.00 77 1011.6
20260509210333 59 7 0.0 0.0 0.00 0.00 0.00 77 1011.6
20260509210235 59 14 0.0 0.0 0.00 0.00 0.00 77 1011.6
20260509210137 59 14 0.0 0.0 0.00 0.00 0.00 77 1011.6
20260509210038 59 14 0.9 0.0 0.00 0.00 0.00 77 1011.6
20260509205959 59 14 0.9 0.0 0.00 0.00 0.00 77 1011.6
20260509205835 59 14 0.9 0.0 0.00 0.00 0.00 77 1011.5
20260509205741 59 14 0.9 0.0 0.00 0.00 0.00 77 1011.5
20260509205639 59 14 0.9 0.0 0.00 0.00 0.00 77 1011.5
20260509205541 59 22 0.9 0.0 0.00 0.00 0.00 77 1011.5
20260509205437 59 43 0.9 0.0 0.00 0.00 0.00 77 1011.5
20260509205339 59 43 0.9 0.0 0.00 0.00 0.00 77 1011.5
20260509205237 59 43 1.7 0.0 0.00 0.00 0.00 77 1011.5
20260509205141 59 22 1.7 0.0 0.00 0.00 0.00 76 1011.5
20260509205042 59 22 0.9 0.0 0.00 0.00 0.00 76 1011.5
20260509204943 60 29 0.9 0.0 0.00 0.00 0.00 76 1011.5
20260509204840 60 18 0.9 0.0 0.00 0.00 0.00 76 1011.5
20260509204742 60 18 0.9 0.0 0.00 0.00 0.00 76 1011.5
20260509204644 60 9 0.9 0.0 0.00 0.00 0.00 76 1011.5
20260509204530 60 53 0.9 0.0 0.00 0.00 0.00 76 1011.5
20260509204426 60 44 0.9 0.0 0.00 0.00 0.00 76 1011.5
20260509204329 60 44 0.0 0.0 0.00 0.00 0.00 76 1011.5
20260509204250 60 44 0.0 0.0 0.00 0.00 0.00 76 1011.5
20260509204155 60 64 0.0 0.0 0.00 0.00 0.00 77 1011.5
20260509204037 60 64 0.0 0.0 0.00 0.00 0.00 77 1011.5
20260509203940 60 62 0.0 0.0 0.00 0.00 0.00 77 1011.5
20260509203901 60 92 0.0 0.0 0.00 0.00 0.00 76 1011.5
20260509203745 60 74 0.0 0.0 0.00 0.00 0.00 76 1011.5
20260509203642 60 54 0.0 0.0 0.00 0.00 0.00 77 1011.5
20260509203525 60 340 0.0 0.0 0.00 0.00 0.00 77 1011.5
20260509203445 60 340 0.0 0.0 0.00 0.00 0.00 77 1011.5
20260509203407 60 340 0.0 0.0 0.00 0.00 0.00 77 1011.5
20260509203224 60 340 0.0 0.0 0.00 0.00 0.00 77 1011.5
20260509203126 60 345 0.0 0.0 0.00 0.00 0.00 77 1011.5
20260509203033 60 345 0.0 0.0 0.00 0.00 0.00 77 1011.5
20260509202936 60 345 0.0 0.0 0.00 0.00 0.00 77 1011.5
20260509202834 60 345 0.0 0.0 0.00 0.00 0.00 78 1011.5
20260509202739 60 36 0.9 0.0 0.00 0.00 0.00 78 1011.5
20260509202644 60 36 0.9 0.0 0.00 0.00 0.00 78 1011.5
20260509202606 60 36 0.9 0.0 0.00 0.00 0.00 78 1011.5
20260509202429 60 46 0.9 0.0 0.00 0.00 0.00 78 1011.5
20260509202354 60 46 0.9 0.0 0.00 0.00 0.00 77 1011.5
20260509202259 60 46 0.9 0.0 0.00 0.00 0.00 77 1011.5